UAL921 EGLL-KEWR

Flight info

Callsign UAL921
Flight time N/A
Altitude 34000
Route EGLL/09R N0468F340 CPT5J CPT L9 BUCGO DCT TIGWE DCT ARPAK DCT FELCA DCT FADZU DCT NICXI DCT BAKUR DCT TOMTO DCT MOMIN DCT DOGAL/M082F340 DCT 54N020W 53N030W 52N040W 51N050W DCT ALLRY/N0471F340 N478B HULTN DCT CBIRD DCT HANAA FLOSI4 KEWR/22L
Aircraft B772/H-S/L

Departure

Time 2026-05-06 17:16
Airport London Heathrow Airport (EGLL)

Arrival

Time N/A
Airport Newark Liberty International Airport (KEWR)
Time Latitude Longitude Altitude Speed Heading
2026-05-06 16:11 51.47415 -0.44432 93 ft 0 kts 91°
2026-05-06 16:52 51.47415 -0.44438 93 ft 2 kts 91°
2026-05-06 16:53 51.47416 -0.44464 95 ft 2 kts 93°
2026-05-06 16:53 51.47417 -0.44490 92 ft 2 kts 97°
2026-05-06 16:53 51.47419 -0.44517 93 ft 2 kts 103°
2026-05-06 16:53 51.47425 -0.44541 94 ft 2 kts 124°
2026-05-06 16:54 51.47437 -0.44558 96 ft 2 kts 174°
2026-05-06 16:54 51.47444 -0.44558 92 ft 0 kts 180°
2026-05-06 16:57 51.47441 -0.44558 92 ft 4 kts 180°
2026-05-06 16:58 51.47363 -0.44558 91 ft 11 kts 180°
2026-05-06 16:58 51.47287 -0.44557 91 ft 11 kts 179°
2026-05-06 16:58 51.47191 -0.44557 90 ft 17 kts 180°
2026-05-06 16:58 51.47415 -0.44432 93 ft 0 kts 91°
2026-05-06 17:00 51.47415 -0.44456 96 ft 4 kts 91°
2026-05-06 17:00 51.47416 -0.44488 92 ft 0 kts 91°
2026-05-06 17:03 51.47416 -0.44500 92 ft 2 kts 87°
2026-05-06 17:03 51.47414 -0.44527 92 ft 2 kts 76°
2026-05-06 17:04 51.47408 -0.44551 92 ft 2 kts 25°
2026-05-06 17:04 51.47395 -0.44556 91 ft 1 kts
2026-05-06 17:04 51.47392 -0.44556 94 ft 0 kts
2026-05-06 17:05 51.47398 -0.44556 91 ft 6 kts
2026-05-06 17:05 51.47457 -0.44563 96 ft 9 kts 348°
2026-05-06 17:06 51.47507 -0.44699 98 ft 23 kts 274°
2026-05-06 17:06 51.47507 -0.44918 97 ft 17 kts 270°
2026-05-06 17:06 51.47507 -0.45109 98 ft 17 kts 269°
2026-05-06 17:06 51.47506 -0.45324 96 ft 22 kts 271°
2026-05-06 17:07 51.47508 -0.45561 98 ft 21 kts 270°
2026-05-06 17:07 51.47515 -0.45798 94 ft 21 kts 272°
2026-05-06 17:07 51.47515 -0.46035 95 ft 21 kts 268°
2026-05-06 17:07 51.47516 -0.46272 93 ft 21 kts 271°
2026-05-06 17:08 51.47517 -0.46511 96 ft 18 kts 270°
2026-05-06 17:08 51.47508 -0.46715 97 ft 18 kts 256°
2026-05-06 17:08 51.47455 -0.46884 94 ft 18 kts 199°
2026-05-06 17:08 51.47329 -0.46872 95 ft 18 kts 177°
2026-05-06 17:09 51.47202 -0.46869 93 ft 19 kts 180°
2026-05-06 17:09 51.47041 -0.46870 93 ft 24 kts 180°
2026-05-06 17:09 51.46964 -0.46869 94 ft 0 kts 179°
2026-05-06 17:10 51.46963 -0.46869 94 ft 3 kts 179°
2026-05-06 17:11 51.46867 -0.46866 92 ft 15 kts 179°
2026-05-06 17:11 51.46770 -0.46897 98 ft 15 kts 229°
2026-05-06 17:11 51.46748 -0.47067 96 ft 17 kts 269°
2026-05-06 17:11 51.46747 -0.47280 96 ft 22 kts 270°
2026-05-06 17:12 51.46746 -0.47545 93 ft 21 kts 270°
2026-05-06 17:12 51.46746 -0.47725 96 ft 7 kts 269°
2026-05-06 17:12 51.46745 -0.47851 95 ft 20 kts 269°
2026-05-06 17:12 51.46745 -0.47930 93 ft 0 kts 269°
2026-05-06 17:13 51.46744 -0.47949 95 ft 9 kts 269°
2026-05-06 17:13 51.46744 -0.48112 96 ft 10 kts 270°
2026-05-06 17:13 51.46744 -0.48139 95 ft 5 kts 270°
2026-05-06 17:13 51.46744 -0.48293 98 ft 17 kts 270°
2026-05-06 17:14 51.46725 -0.48442 98 ft 13 kts 225°
2026-05-06 17:14 51.46655 -0.48467 99 ft 0 kts 182°
2026-05-06 17:15 51.46609 -0.48469 100 ft 17 kts 180°
2026-05-06 17:15 51.46497 -0.48450 100 ft 15 kts 146°
2026-05-06 17:15 51.46477 -0.48212 98 ft 46 kts 89°
2026-05-06 17:15 51.46481 -0.47268 94 ft 122 kts 89°
2026-05-06 17:16 51.46464 -0.45561 166 ft 172 kts 92°
2026-05-06 17:16 51.46462 -0.43697 869 ft 165 kts 84°
2026-05-06 17:16 51.46488 -0.41781 1466 ft 182 kts 84°
2026-05-06 17:16 51.46543 -0.39534 1762 ft 216 kts 83°
2026-05-06 17:17 51.46650 -0.37012 2424 ft 237 kts 80°
2026-05-06 17:17 51.47178 -0.34512 2247 ft 239 kts 50°
2026-05-06 17:17 51.48433 -0.32885 2356 ft 234 kts 19°
2026-05-06 17:17 51.50053 -0.32662 2898 ft 236 kts 347°
2026-05-06 17:18 51.51558 -0.33700 3626 ft 240 kts 323°
2026-05-06 17:18 51.52617 -0.35831 4334 ft 252 kts 294°
2026-05-06 17:18 51.52950 -0.38625 5056 ft 256 kts 274°
2026-05-06 17:18 51.52966 -0.41517 5790 ft 262 kts 271°
2026-05-06 17:19 51.52954 -0.44445 6525 ft 268 kts 271°
2026-05-06 17:19 51.52706 -0.47429 7189 ft 273 kts 256°
2026-05-06 17:19 51.52142 -0.50401 7859 ft 281 kts 254°
2026-05-06 17:19 51.51566 -0.53453 8535 ft 288 kts 256°
2026-05-06 17:20 51.51023 -0.56590 9206 ft 295 kts 257°
2026-05-06 17:20 51.50476 -0.59755 9889 ft 300 kts 257°
2026-05-06 17:20 51.49918 -0.63008 10506 ft 304 kts 257°
2026-05-06 17:20 51.49355 -0.66311 11137 ft 307 kts 256°
2026-05-06 17:21 51.48794 -0.69635 11773 ft 310 kts 257°
2026-05-06 17:21 51.48228 -0.72987 12421 ft 312 kts 256°
2026-05-06 17:21 51.47850 -0.75220 12858 ft 313 kts 257°
2026-05-06 17:21 51.47106 -0.79703 13741 ft 313 kts 258°
2026-05-06 17:22 51.46645 -0.83115 14344 ft 312 kts 260°
2026-05-06 17:22 51.46366 -0.85386 14731 ft 310 kts 262°
2026-05-06 17:22 51.46284 -0.88785 15317 ft 304 kts 278°
2026-05-06 17:22 51.46734 -0.93184 16154 ft 298 kts 280°
2026-05-06 17:23 51.46962 -0.95414 16515 ft 298 kts 279°
2026-05-06 17:23 51.47277 -0.98702 17016 ft 297 kts 279°
2026-05-06 17:23 51.47558 -1.01842 17521 ft 296 kts 278°
2026-05-06 17:23 51.47837 -1.05104 18041 ft 293 kts 278°
2026-05-06 17:24 51.48105 -1.08333 18533 ft 290 kts 278°
2026-05-06 17:24 51.48365 -1.11536 18931 ft 286 kts 277°
2026-05-06 17:24 51.48617 -1.14674 18992 ft 288 kts 277°
2026-05-06 17:24 51.48877 -1.17936 18772 ft 300 kts 277°
2026-05-06 17:25 51.49396 -1.21232 18490 ft 311 kts 296°
2026-05-06 17:25 51.50582 -1.24210 18318 ft 324 kts 312°
2026-05-06 17:25 51.52218 -1.26744 18129 ft 337 kts 317°
2026-05-06 17:25 51.53993 -1.29304 18091 ft 346 kts 317°
2026-05-06 17:26 51.55798 -1.31957 18075 ft 356 kts 316°
2026-05-06 17:26 51.57631 -1.34701 18168 ft 361 kts 316°
2026-05-06 17:26 51.59430 -1.37515 18463 ft 361 kts 311°
2026-05-06 17:26 51.61007 -1.40664 18689 ft 361 kts 304°
2026-05-06 17:27 51.62348 -1.44027 18930 ft 361 kts 298°
2026-05-06 17:27 51.63530 -1.47604 19165 ft 361 kts 297°
2026-05-06 17:27 51.64701 -1.51216 19412 ft 361 kts 297°
2026-05-06 17:27 51.65853 -1.54753 19650 ft 361 kts 297°
2026-05-06 17:28 51.67027 -1.58333 19889 ft 362 kts 297°
2026-05-06 17:28 51.68216 -1.61948 19926 ft 368 kts 297°
2026-05-06 17:28 51.69379 -1.65671 19974 ft 373 kts 292°
2026-05-06 17:28 51.70243 -1.69653 20004 ft 379 kts 285°
2026-05-06 17:29 51.70823 -1.73821 20006 ft 380 kts 278°
2026-05-06 17:29 51.71127 -1.78027 20011 ft 383 kts 276°
2026-05-06 17:29 51.71410 -1.82324 20018 ft 387 kts 276°
2026-05-06 17:29 51.71705 -1.86632 20003 ft 386 kts 276°
2026-05-06 17:30 51.72007 -1.90928 19982 ft 384 kts 276°
2026-05-06 17:30 51.72312 -1.95209 19991 ft 383 kts 277°
2026-05-06 17:30 51.72616 -1.99500 19996 ft 383 kts 276°
2026-05-06 17:30 51.72905 -2.03577 20002 ft 384 kts 276°
2026-05-06 17:31 51.73206 -2.07867 20006 ft 385 kts 276°
2026-05-06 17:31 51.73505 -2.12163 20249 ft 382 kts 276°
2026-05-06 17:31 51.73801 -2.16419 20639 ft 378 kts 276°
2026-05-06 17:31 51.74090 -2.20576 20995 ft 374 kts 276°
2026-05-06 17:32 51.74379 -2.24740 21366 ft 369 kts 276°
2026-05-06 17:32 51.74662 -2.28834 21735 ft 364 kts 276°
2026-05-06 17:32 51.74939 -2.32873 22101 ft 359 kts 276°
2026-05-06 17:32 51.75211 -2.36858 22392 ft 356 kts 276°
2026-05-06 17:33 51.75480 -2.40814 22714 ft 352 kts 276°
2026-05-06 17:33 51.75742 -2.44674 23263 ft 349 kts 276°
2026-05-06 17:33 51.76004 -2.48562 23760 ft 345 kts 276°
2026-05-06 17:33 51.76260 -2.52386 24212 ft 340 kts 276°
2026-05-06 17:34 51.76503 -2.56159 24675 ft 335 kts 276°
2026-05-06 17:34 51.76734 -2.59881 25137 ft 329 kts 276°
2026-05-06 17:34 51.76963 -2.63532 25601 ft 323 kts 276°
2026-05-06 17:34 51.77189 -2.67048 26064 ft 315 kts 276°
2026-05-06 17:35 51.77415 -2.70526 26537 ft 306 kts 276°
2026-05-06 17:35 51.77634 -2.73916 26883 ft 301 kts 276°
2026-05-06 17:35 51.77849 -2.77270 27112 ft 299 kts 276°
2026-05-06 17:36 51.78268 -2.83833 27583 ft 293 kts 275°
2026-05-06 17:36 51.78476 -2.87132 27622 ft 296 kts 275°
2026-05-06 17:36 51.78686 -2.90471 27601 ft 300 kts 275°
2026-05-06 17:36 51.78898 -2.93841 27677 ft 301 kts 275°
2026-05-06 17:37 51.79108 -2.97208 27817 ft 301 kts 275°
2026-05-06 17:37 51.79308 -3.00434 27936 ft 301 kts 275°
2026-05-06 17:37 51.79517 -3.03814 27983 ft 302 kts 275°
2026-05-06 17:37 51.79725 -3.07200 28044 ft 304 kts 275°
2026-05-06 17:38 51.80148 -3.14114 28051 ft 313 kts 275°
2026-05-06 17:38 51.80575 -3.21174 28048 ft 322 kts 275°
2026-05-06 17:39 51.81010 -3.28531 28041 ft 334 kts 275°
2026-05-06 17:39 51.81458 -3.36159 28033 ft 346 kts 275°
2026-05-06 17:40 51.81922 -3.43980 28024 ft 357 kts 275°
2026-05-06 17:40 51.82398 -3.52116 28015 ft 369 kts 276°
2026-05-06 17:41 51.83306 -3.60403 28017 ft 379 kts 282°
2026-05-06 17:41 51.84428 -3.68843 28013 ft 388 kts 282°
2026-05-06 17:42 51.85553 -3.77463 28008 ft 397 kts 281°
2026-05-06 17:42 51.86689 -3.86314 28007 ft 405 kts 281°
2026-05-06 17:43 51.87833 -3.95294 28012 ft 413 kts 281°
2026-05-06 17:43 51.88981 -4.04361 28008 ft 421 kts 281°
2026-05-06 17:44 51.90161 -4.13731 28014 ft 428 kts 281°
2026-05-06 17:44 51.91347 -4.23211 28011 ft 435 kts 281°
2026-05-06 17:45 51.92550 -4.32890 28011 ft 441 kts 281°
2026-05-06 17:45 51.93764 -4.42729 28009 ft 447 kts 281°
2026-05-06 17:46 51.94978 -4.52644 28014 ft 453 kts 281°
2026-05-06 17:46 51.96204 -4.62733 28009 ft 459 kts 282°
2026-05-06 17:47 51.97437 -4.72947 28011 ft 463 kts 282°
2026-05-06 17:47 51.98046 -4.78024 27999 ft 466 kts 281°
2026-05-06 17:47 51.98665 -4.83209 28003 ft 467 kts 281°
2026-05-06 17:48 51.99902 -4.93617 27995 ft 471 kts 282°
2026-05-06 17:48 52.00547 -4.98844 27997 ft 472 kts 284°
2026-05-06 17:48 52.01447 -5.03796 27996 ft 473 kts 290°
2026-05-06 17:49 52.04143 -5.13487 27992 ft 474 kts 301°
2026-05-06 17:49 52.07576 -5.22688 27998 ft 476 kts 302°
2026-05-06 17:50 52.09286 -5.27232 28000 ft 476 kts 302°
2026-05-06 17:50 52.11012 -5.31860 28005 ft 477 kts 301°
2026-05-06 17:50 52.14432 -5.41148 28004 ft 479 kts 301°
2026-05-06 17:51 52.17830 -5.50460 28004 ft 480 kts 301°
2026-05-06 17:51 52.21247 -5.59851 28002 ft 481 kts 301°
2026-05-06 17:52 52.24598 -5.69323 27998 ft 482 kts 297°
2026-05-06 17:52 52.27321 -5.79299 28009 ft 483 kts 294°
2026-05-06 17:53 52.29972 -5.89384 28002 ft 483 kts 294°
2026-05-06 17:53 52.31305 -5.94434 27994 ft 483 kts 294°
2026-05-06 17:53 52.32648 -5.99507 27999 ft 484 kts 294°
2026-05-06 17:54 52.33931 -6.04341 28000 ft 484 kts 294°
2026-05-06 17:54 52.35276 -6.09410 28005 ft 484 kts 294°
2026-05-06 17:54 52.37948 -6.19500 28001 ft 485 kts 295°
2026-05-06 17:55 52.39289 -6.24580 27997 ft 485 kts 295°
2026-05-06 17:55 52.40629 -6.29669 27997 ft 485 kts 294°
2026-05-06 17:55 52.41967 -6.34768 27998 ft 486 kts 294°
2026-05-06 17:55 52.43283 -6.39789 27995 ft 486 kts 294°
2026-05-06 17:56 52.44616 -6.44892 27994 ft 486 kts 294°
2026-05-06 17:56 52.45950 -6.50005 27985 ft 486 kts 294°
2026-05-06 17:56 52.47280 -6.55118 27989 ft 487 kts 294°
2026-05-06 17:56 52.48592 -6.60172 27991 ft 487 kts 294°
2026-05-06 17:57 52.49919 -6.65298 27990 ft 487 kts 294°
2026-05-06 17:57 52.51246 -6.70431 27989 ft 487 kts 294°
2026-05-06 17:57 52.52569 -6.75564 27988 ft 488 kts 294°
2026-05-06 17:57 52.53892 -6.80704 27985 ft 488 kts 294°
2026-05-06 17:58 52.55194 -6.85779 27990 ft 488 kts 294°
2026-05-06 17:58 52.56512 -6.90924 27984 ft 488 kts 294°
2026-05-06 17:58 52.57828 -6.96077 27979 ft 488 kts 294°
2026-05-06 17:58 52.59099 -7.01062 27971 ft 488 kts 294°
2026-05-06 17:59 52.60398 -7.06168 27971 ft 488 kts 294°
2026-05-06 17:59 52.61710 -7.11342 27975 ft 488 kts 294°
2026-05-06 17:59 52.63024 -7.16532 27980 ft 488 kts 294°
2026-05-06 17:59 52.64330 -7.21703 27979 ft 488 kts 294°
2026-05-06 18:00 52.65617 -7.26809 27972 ft 488 kts 294°
2026-05-06 18:00 52.66918 -7.31984 27973 ft 488 kts 294°
2026-05-06 18:00 52.68219 -7.37170 27977 ft 488 kts 294°
2026-05-06 18:00 52.69516 -7.42357 27976 ft 488 kts 294°
2026-05-06 18:01 52.70812 -7.47545 27970 ft 488 kts 293°
2026-05-06 18:01 52.72089 -7.52674 27967 ft 488 kts 293°
2026-05-06 18:01 52.73381 -7.57875 27961 ft 489 kts 293°
2026-05-06 18:01 52.74675 -7.63093 27965 ft 489 kts 293°
2026-05-06 18:02 52.75959 -7.68284 27965 ft 489 kts 293°
2026-05-06 18:02 52.77228 -7.73429 27967 ft 488 kts 293°
2026-05-06 18:02 52.78510 -7.78637 27963 ft 489 kts 293°
2026-05-06 18:02 52.79788 -7.83841 27962 ft 488 kts 293°
2026-05-06 18:03 52.81067 -7.89062 27966 ft 488 kts 293°
2026-05-06 18:03 52.82341 -7.94274 27970 ft 488 kts 293°
2026-05-06 18:03 52.83598 -7.99430 27965 ft 489 kts 293°
2026-05-06 18:03 52.84825 -8.04472 27961 ft 489 kts 293°
2026-05-06 18:04 52.86095 -8.09702 27952 ft 489 kts 293°
2026-05-06 18:04 52.87359 -8.14949 27952 ft 489 kts 292°
2026-05-06 18:04 52.88475 -8.20190 27956 ft 489 kts 290°
2026-05-06 18:04 52.89542 -8.25561 27962 ft 489 kts 289°
2026-05-06 18:05 52.90585 -8.30944 27959 ft 489 kts 289°
2026-05-06 18:05 52.91620 -8.36313 27958 ft 489 kts 289°
2026-05-06 18:05 52.92658 -8.41685 27960 ft 489 kts 289°
2026-05-06 18:05 52.93701 -8.47065 27959 ft 490 kts 289°
2026-05-06 18:06 52.94733 -8.52372 27960 ft 490 kts 289°
2026-05-06 18:06 52.95783 -8.57771 27968 ft 490 kts 289°
2026-05-06 18:06 52.96832 -8.63167 27961 ft 490 kts 289°
2026-05-06 18:06 52.97875 -8.68546 27952 ft 490 kts 289°
2026-05-06 18:07 52.98916 -8.73936 27968 ft 490 kts 289°
2026-05-06 18:07 52.99939 -8.79245 27964 ft 490 kts 289°
2026-05-06 18:07 53.00971 -8.84623 27955 ft 490 kts 289°
2026-05-06 18:07 53.02005 -8.90027 27958 ft 490 kts 289°
2026-05-06 18:08 53.03037 -8.95432 27960 ft 490 kts 289°
2026-05-06 18:08 53.03720 -8.99021 27976 ft 490 kts 289°
2026-05-06 18:08 53.04716 -9.04260 27966 ft 490 kts 289°
2026-05-06 18:08 53.06073 -9.11431 27969 ft 490 kts 289°
2026-05-06 18:09 53.07094 -9.16841 27980 ft 490 kts 289°
2026-05-06 18:09 53.07770 -9.20435 27974 ft 490 kts 289°
2026-05-06 18:09 53.08799 -9.25913 27964 ft 490 kts 289°
2026-05-06 18:09 53.09803 -9.31270 27978 ft 490 kts 289°
2026-05-06 18:10 53.10818 -9.36704 27970 ft 490 kts 289°
2026-05-06 18:10 53.11830 -9.42142 27979 ft 491 kts 289°
2026-05-06 18:10 53.12836 -9.47579 27985 ft 490 kts 289°
2026-05-06 18:10 53.13824 -9.52944 27980 ft 490 kts 288°
2026-05-06 18:11 53.14824 -9.58395 27980 ft 491 kts 288°
2026-05-06 18:11 53.15821 -9.63847 27980 ft 491 kts 288°
2026-05-06 18:11 53.16815 -9.69299 27984 ft 491 kts 288°
2026-05-06 18:11 53.17796 -9.74688 27977 ft 491 kts 288°
2026-05-06 18:12 53.18791 -9.80169 27975 ft 491 kts 288°
2026-05-06 18:12 53.19768 -9.85566 27986 ft 491 kts 288°
2026-05-06 18:12 53.20753 -9.91024 27990 ft 491 kts 288°
2026-05-06 18:12 53.21733 -9.96475 27990 ft 491 kts 288°
2026-05-06 18:13 53.22684 -10.01777 27981 ft 491 kts 288°
2026-05-06 18:13 53.23662 -10.07242 27983 ft 491 kts 288°
2026-05-06 18:13 53.24641 -10.12733 27987 ft 491 kts 288°
2026-05-06 18:13 53.25613 -10.18201 27987 ft 491 kts 288°
2026-05-06 18:14 53.26569 -10.23599 27988 ft 491 kts 288°
2026-05-06 18:14 53.27539 -10.29086 27987 ft 491 kts 288°
2026-05-06 18:14 53.28506 -10.34573 27981 ft 491 kts 288°
2026-05-06 18:14 53.29470 -10.40064 27989 ft 491 kts 287°
2026-05-06 18:15 53.30431 -10.45552 27992 ft 491 kts 287°
2026-05-06 18:15 53.31386 -10.51025 27985 ft 491 kts 287°
2026-05-06 18:15 53.32340 -10.56509 27984 ft 491 kts 287°
2026-05-06 18:15 53.33280 -10.61932 27988 ft 491 kts 287°
2026-05-06 18:16 53.34229 -10.67417 27986 ft 490 kts 287°
2026-05-06 18:16 53.35176 -10.72908 27985 ft 490 kts 287°
2026-05-06 18:16 53.36118 -10.78390 27986 ft 490 kts 287°
2026-05-06 18:16 53.37060 -10.83891 27986 ft 490 kts 287°
2026-05-06 18:17 53.38001 -10.89396 27989 ft 490 kts 287°
2026-05-06 18:17 53.38924 -10.94819 27990 ft 490 kts 287°
2026-05-06 18:17 53.39840 -11.00218 27988 ft 490 kts 287°
2026-05-06 18:17 53.40761 -11.05661 27988 ft 490 kts 287°
2026-05-06 18:18 53.41690 -11.11165 27986 ft 490 kts 287°
2026-05-06 18:18 53.42616 -11.16676 27986 ft 490 kts 287°
2026-05-06 18:18 53.43539 -11.22177 27986 ft 490 kts 287°
2026-05-06 18:18 53.44457 -11.27673 27986 ft 490 kts 287°
2026-05-06 18:19 53.45365 -11.33126 27985 ft 490 kts 287°
2026-05-06 18:19 53.46279 -11.38630 27998 ft 489 kts 286°
2026-05-06 18:19 53.47193 -11.44148 27981 ft 489 kts 286°
2026-05-06 18:19 53.48103 -11.49667 27983 ft 489 kts 286°
2026-05-06 18:20 53.48999 -11.55121 27984 ft 488 kts 286°
2026-05-06 18:20 53.49903 -11.60638 27984 ft 488 kts 286°
2026-05-06 18:20 53.50802 -11.66137 27983 ft 488 kts 286°
2026-05-06 18:20 53.51702 -11.71663 27983 ft 488 kts 286°
2026-05-06 18:21 53.52582 -11.77090 27982 ft 488 kts 286°
2026-05-06 18:21 53.53475 -11.82608 27983 ft 487 kts 286°
2026-05-06 18:21 53.54365 -11.88125 27983 ft 487 kts 286°
2026-05-06 18:21 53.55251 -11.93638 27983 ft 487 kts 286°
2026-05-06 18:22 53.56133 -11.99140 27974 ft 487 kts 285°
2026-05-06 18:22 53.56987 -12.04490 27976 ft 487 kts 285°
2026-05-06 18:22 53.57853 -12.09927 27982 ft 487 kts 285°
2026-05-06 18:22 53.58727 -12.15438 27979 ft 487 kts 285°
2026-05-06 18:23 53.59600 -12.20959 27979 ft 487 kts 285°
2026-05-06 18:23 53.60471 -12.26487 27977 ft 487 kts 285°
2026-05-06 18:23 53.61340 -12.32015 27989 ft 487 kts 285°
2026-05-06 18:23 53.62192 -12.37457 27985 ft 486 kts 285°
2026-05-06 18:24 53.63053 -12.42972 27977 ft 486 kts 285°
2026-05-06 18:24 53.63911 -12.48492 27973 ft 486 kts 285°
2026-05-06 18:24 53.64764 -12.53997 27976 ft 485 kts 285°
2026-05-06 18:24 53.65615 -12.59506 27968 ft 485 kts 285°
2026-05-06 18:25 53.66462 -12.65008 27971 ft 485 kts 285°
2026-05-06 18:25 53.67307 -12.70514 27914 ft 485 kts 285°
2026-05-06 18:25 53.68150 -12.76027 27977 ft 483 kts 285°
2026-05-06 18:25 53.68984 -12.81502 27979 ft 482 kts 284°
2026-05-06 18:26 53.69806 -12.86911 27969 ft 481 kts 284°
2026-05-06 18:26 53.70637 -12.92402 27969 ft 481 kts 284°
2026-05-06 18:26 53.71462 -12.97869 27972 ft 480 kts 284°
2026-05-06 18:26 53.72261 -13.03187 27970 ft 479 kts 284°
2026-05-06 18:27 53.73079 -13.08642 27973 ft 479 kts 284°
2026-05-06 18:27 53.73892 -13.14090 27967 ft 478 kts 284°
2026-05-06 18:27 53.74696 -13.19491 27967 ft 478 kts 284°
2026-05-06 18:27 53.75504 -13.24936 27966 ft 477 kts 284°
2026-05-06 18:28 53.76308 -13.30380 27980 ft 477 kts 284°
2026-05-06 18:28 53.77110 -13.35824 27975 ft 476 kts 284°
2026-05-06 18:28 53.77910 -13.41274 27967 ft 475 kts 284°
2026-05-06 18:28 53.78703 -13.46694 27968 ft 475 kts 284°
2026-05-06 18:29 53.79485 -13.52065 27961 ft 474 kts 283°
2026-05-06 18:29 53.80274 -13.57493 27963 ft 474 kts 283°
2026-05-06 18:29 53.81057 -13.62900 27959 ft 473 kts 283°
2026-05-06 18:29 53.81839 -13.68320 27961 ft 473 kts 283°
2026-05-06 18:30 53.82618 -13.73737 27952 ft 472 kts 283°
2026-05-06 18:30 53.83382 -13.79073 27959 ft 472 kts 283°
2026-05-06 18:30 53.84156 -13.84494 27957 ft 471 kts 283°
2026-05-06 18:30 53.84924 -13.89892 27959 ft 471 kts 283°
2026-05-06 18:31 53.85691 -13.95307 27960 ft 471 kts 283°
2026-05-06 18:31 53.86431 -14.00545 27957 ft 470 kts 283°
2026-05-06 18:31 53.87183 -14.05883 27957 ft 470 kts 283°
2026-05-06 18:31 53.87939 -14.11274 27959 ft 470 kts 283°
2026-05-06 18:32 53.88695 -14.16681 27958 ft 470 kts 283°
2026-05-06 18:32 53.89449 -14.22100 27957 ft 470 kts 283°
2026-05-06 18:32 53.90187 -14.27419 27965 ft 470 kts 283°
2026-05-06 18:32 53.90935 -14.32816 27958 ft 469 kts 282°
2026-05-06 18:33 53.91679 -14.38219 27951 ft 469 kts 282°
2026-05-06 18:33 53.92419 -14.43617 27945 ft 469 kts 282°
2026-05-06 18:33 53.93157 -14.49013 27948 ft 468 kts 282°
2026-05-06 18:33 53.93883 -14.54340 27945 ft 468 kts 282°
2026-05-06 18:34 53.94616 -14.59739 27948 ft 468 kts 282°
2026-05-06 18:34 53.95346 -14.65128 27955 ft 467 kts 282°
2026-05-06 18:34 53.96072 -14.70515 27944 ft 467 kts 282°
2026-05-06 18:34 53.96796 -14.75905 27944 ft 467 kts 282°
2026-05-06 18:35 53.97507 -14.81216 27946 ft 467 kts 282°
2026-05-06 18:35 53.98227 -14.86609 27942 ft 466 kts 282°
2026-05-06 18:35 53.98943 -14.91995 27941 ft 466 kts 282°
2026-05-06 18:35 53.99635 -14.97391 27940 ft 466 kts 279°
2026-05-06 18:36 54.00088 -15.02668 27935 ft 465 kts 274°
2026-05-06 18:36 54.00239 -15.08086 27948 ft 464 kts 271°
2026-05-06 18:36 54.00320 -15.13581 27944 ft 464 kts 271°
2026-05-06 18:36 54.00403 -15.19075 27938 ft 464 kts 271°
2026-05-06 18:37 54.00490 -15.24564 27944 ft 464 kts 271°
2026-05-06 18:37 54.00551 -15.28192 27943 ft 464 kts 271°
2026-05-06 18:37 54.00676 -15.35526 27941 ft 464 kts 271°
2026-05-06 18:37 54.00772 -15.41019 27943 ft 464 kts 271°
2026-05-06 18:38 54.00865 -15.46462 27933 ft 464 kts 271°
2026-05-06 18:38 54.00958 -15.51962 27954 ft 464 kts 271°
2026-05-06 18:38 54.01047 -15.57449 27944 ft 464 kts 270°
2026-05-06 18:38 54.01133 -15.62861 27941 ft 463 kts 270°
2026-05-06 18:39 54.01218 -15.68341 27944 ft 463 kts 270°
2026-05-06 18:39 54.01299 -15.73824 27945 ft 463 kts 270°
2026-05-06 18:39 54.01379 -15.79322 27946 ft 463 kts 270°
2026-05-06 18:40 54.01528 -15.90203 27940 ft 463 kts 270°
2026-05-06 18:40 54.01600 -15.95687 27942 ft 462 kts 270°
2026-05-06 18:40 54.01667 -16.01026 27943 ft 462 kts 270°
2026-05-06 18:40 54.01734 -16.06496 27940 ft 462 kts 270°
2026-05-06 18:41 54.01797 -16.11891 27942 ft 462 kts 270°
2026-05-06 18:41 54.01858 -16.17369 27944 ft 462 kts 270°
2026-05-06 18:41 54.01917 -16.22846 27942 ft 462 kts 270°
2026-05-06 18:41 54.01974 -16.28315 27943 ft 462 kts 270°
2026-05-06 18:42 54.02027 -16.33720 27945 ft 462 kts 270°
2026-05-06 18:42 54.02079 -16.39195 27941 ft 462 kts 270°
2026-05-06 18:42 54.02128 -16.44671 27942 ft 462 kts 270°
2026-05-06 18:42 54.02175 -16.50146 27943 ft 462 kts 270°
2026-05-06 18:43 54.02219 -16.55602 27939 ft 462 kts 269°
2026-05-06 18:43 54.02260 -16.61014 27939 ft 462 kts 269°
2026-05-06 18:43 54.02299 -16.66474 27940 ft 462 kts 269°
2026-05-06 18:43 54.02336 -16.71959 27940 ft 462 kts 269°
2026-05-06 18:44 54.02370 -16.77431 27942 ft 462 kts 269°
2026-05-06 18:44 54.02402 -16.82899 27943 ft 462 kts 269°
2026-05-06 18:44 54.02431 -16.88363 27943 ft 462 kts 269°
2026-05-06 18:44 54.02458 -16.93830 27942 ft 462 kts 269°
2026-05-06 18:45 54.02482 -16.99299 27940 ft 462 kts 269°
2026-05-06 18:45 54.02503 -17.04525 27940 ft 462 kts 269°
2026-05-06 18:45 54.02522 -17.09995 27945 ft 462 kts 269°
2026-05-06 18:45 54.02534 -17.13695 27941 ft 462 kts 269°
2026-05-06 18:46 54.02554 -17.20943 27943 ft 462 kts 269°
2026-05-06 18:46 54.02566 -17.26357 27957 ft 462 kts 269°
2026-05-06 18:46 54.02575 -17.31838 27948 ft 462 kts 269°
2026-05-06 18:46 54.02582 -17.37307 27943 ft 462 kts 269°
2026-05-06 18:47 54.02587 -17.42777 27941 ft 462 kts 269°
2026-05-06 18:47 54.02589 -17.48248 27942 ft 462 kts 269°
2026-05-06 18:47 54.02588 -17.53725 27946 ft 462 kts 268°
2026-05-06 18:47 54.02586 -17.59143 27945 ft 462 kts 268°
2026-05-06 18:48 54.02580 -17.64609 27945 ft 462 kts 268°
2026-05-06 18:48 54.02573 -17.70082 27942 ft 462 kts 268°
2026-05-06 18:48 54.02562 -17.75556 27942 ft 462 kts 268°
2026-05-06 18:48 54.02549 -17.81029 27944 ft 462 kts 268°
2026-05-06 18:49 54.02534 -17.86448 27946 ft 462 kts 268°
2026-05-06 18:49 54.02516 -17.91936 27942 ft 462 kts 268°
2026-05-06 18:49 54.02496 -17.97414 27943 ft 462 kts 268°
2026-05-06 18:49 54.02474 -18.02727 27946 ft 462 kts 268°
2026-05-06 18:50 54.02449 -18.08195 27946 ft 462 kts 268°
2026-05-06 18:50 54.02422 -18.13624 27943 ft 462 kts 268°
2026-05-06 18:50 54.02392 -18.19106 27941 ft 462 kts 268°
2026-05-06 18:50 54.02359 -18.24513 27946 ft 462 kts 268°
2026-05-06 18:51 54.02324 -18.29994 27947 ft 462 kts 268°
2026-05-06 18:51 54.02287 -18.35469 27950 ft 463 kts 268°
2026-05-06 18:51 54.02247 -18.40947 27947 ft 463 kts 268°
2026-05-06 18:51 54.02204 -18.46430 27947 ft 463 kts 268°
2026-05-06 18:52 54.02159 -18.51922 27950 ft 463 kts 268°
2026-05-06 18:52 54.02112 -18.57336 27949 ft 463 kts 268°
2026-05-06 18:52 54.02062 -18.62827 27945 ft 463 kts 268°
2026-05-06 18:52 54.02009 -18.68313 27951 ft 463 kts 268°
2026-05-06 18:53 54.01955 -18.73747 27951 ft 463 kts 268°
2026-05-06 18:53 54.01897 -18.79234 27947 ft 463 kts 267°
2026-05-06 18:53 54.01837 -18.84732 27949 ft 464 kts 267°
2026-05-06 18:53 54.01775 -18.90215 27953 ft 464 kts 267°
2026-05-06 18:54 54.01709 -18.95723 27952 ft 464 kts 267°
2026-05-06 18:54 54.01644 -19.00999 27966 ft 464 kts 267°
2026-05-06 18:54 54.01574 -19.06497 27957 ft 464 kts 267°
2026-05-06 18:54 54.01502 -19.12008 27952 ft 464 kts 267°
2026-05-06 18:55 54.01426 -19.17509 27954 ft 464 kts 267°
2026-05-06 18:55 54.01350 -19.22929 27953 ft 464 kts 267°
2026-05-06 18:55 54.01270 -19.28422 27953 ft 464 kts 267°
2026-05-06 18:55 54.01187 -19.33920 27960 ft 465 kts 266°
2026-05-06 18:56 54.01102 -19.39421 27954 ft 465 kts 266°
2026-05-06 18:56 54.01015 -19.44908 27957 ft 465 kts 266°
2026-05-06 18:56 54.00924 -19.50408 27950 ft 465 kts 266°
2026-05-06 18:56 54.00863 -19.54056 27962 ft 465 kts 266°
2026-05-06 18:57 54.00738 -19.61344 27961 ft 465 kts 266°
2026-05-06 18:57 54.00640 -19.66857 27959 ft 465 kts 266°
2026-05-06 18:57 54.00574 -19.70499 27961 ft 465 kts 266°
2026-05-06 18:57 54.00472 -19.76010 27969 ft 465 kts 266°
2026-05-06 18:58 54.00368 -19.81506 27960 ft 465 kts 266°
2026-05-06 18:58 54.00227 -19.88800 27963 ft 465 kts 266°
2026-05-06 18:58 54.00155 -19.92447 27964 ft 465 kts 266°
2026-05-06 18:58 54.00043 -19.97961 27969 ft 465 kts 266°
2026-05-06 18:59 53.99855 -20.03293 27956 ft 464 kts 263°
2026-05-06 18:59 53.99557 -20.08772 27962 ft 464 kts 263°
2026-05-06 18:59 53.99233 -20.14229 27962 ft 464 kts 262°
2026-05-06 18:59 53.98899 -20.19688 27966 ft 464 kts 262°
2026-05-06 19:00 53.98564 -20.25158 27962 ft 464 kts 262°
2026-05-06 19:00 53.98236 -20.30557 27965 ft 464 kts 262°
2026-05-06 19:00 53.97904 -20.36034 27966 ft 464 kts 262°
2026-05-06 19:00 53.97574 -20.41500 27977 ft 465 kts 262°
2026-05-06 19:01 53.97243 -20.46976 27974 ft 465 kts 262°
2026-05-06 19:01 53.96910 -20.52451 27972 ft 465 kts 262°
2026-05-06 19:01 53.96580 -20.57852 27972 ft 465 kts 262°
2026-05-06 19:01 53.96243 -20.63322 27976 ft 465 kts 262°
2026-05-06 19:02 53.95904 -20.68786 27977 ft 465 kts 262°
2026-05-06 19:02 53.95561 -20.74269 27972 ft 465 kts 262°
2026-05-06 19:02 53.95215 -20.79748 27978 ft 465 kts 262°
2026-05-06 19:02 53.94868 -20.85218 27980 ft 465 kts 262°
2026-05-06 19:03 53.94522 -20.90628 27976 ft 466 kts 262°
2026-05-06 19:03 53.93825 -21.01402 27987 ft 466 kts 262°
2026-05-06 19:03 53.93467 -21.06874 27986 ft 466 kts 262°
2026-05-06 19:04 53.93106 -21.12359 27972 ft 466 kts 262°
2026-05-06 19:04 53.92743 -21.17825 27986 ft 466 kts 262°
2026-05-06 19:04 53.92383 -21.23216 27972 ft 465 kts 262°
2026-05-06 19:04 53.92016 -21.28679 27979 ft 465 kts 261°
2026-05-06 19:05 53.91647 -21.34122 27992 ft 465 kts 261°
2026-05-06 19:05 53.91274 -21.39588 27978 ft 465 kts 261°
2026-05-06 19:05 53.90900 -21.45044 27992 ft 465 kts 261°
2026-05-06 19:05 53.90522 -21.50505 27981 ft 465 kts 262°
2026-05-06 19:06 53.90146 -21.55909 27985 ft 465 kts 262°
2026-05-06 19:06 53.89764 -21.61368 27991 ft 465 kts 261°
2026-05-06 19:06 53.89381 -21.66808 27986 ft 465 kts 261°
2026-05-06 19:06 53.88993 -21.72273 27986 ft 465 kts 261°
2026-05-06 19:07 53.88603 -21.77727 27996 ft 465 kts 261°
2026-05-06 19:07 53.88215 -21.83124 27985 ft 465 kts 261°
2026-05-06 19:07 53.87821 -21.88572 27991 ft 465 kts 261°
2026-05-06 19:07 53.87424 -21.94023 27999 ft 465 kts 261°
2026-05-06 19:08 53.87025 -21.99464 27987 ft 465 kts 261°
2026-05-06 19:08 53.86635 -22.04747 27999 ft 465 kts 261°
2026-05-06 19:08 53.86237 -22.10120 27990 ft 465 kts 261°
2026-05-06 19:08 53.85830 -22.15563 27987 ft 465 kts 261°
2026-05-06 19:09 53.85421 -22.21003 28001 ft 465 kts 261°
2026-05-06 19:09 53.85011 -22.26433 27987 ft 465 kts 261°
2026-05-06 19:09 53.84597 -22.31867 27994 ft 465 kts 261°
2026-05-06 19:10 53.83767 -22.42686 27991 ft 465 kts 261°
2026-05-06 19:10 53.83346 -22.48121 27993 ft 465 kts 261°
2026-05-06 19:10 53.82921 -22.53572 28002 ft 465 kts 261°
2026-05-06 19:10 53.82495 -22.59001 27999 ft 465 kts 261°
2026-05-06 19:11 53.82066 -22.64438 28003 ft 465 kts 261°
2026-05-06 19:11 53.81207 -22.75239 28001 ft 465 kts 261°
2026-05-06 19:11 53.80771 -22.80663 28000 ft 465 kts 261°
2026-05-06 19:12 53.80333 -22.86085 27999 ft 465 kts 261°
2026-05-06 19:12 53.79450 -22.96927 28000 ft 465 kts 261°
2026-05-06 19:13 53.78576 -23.07543 28011 ft 465 kts 261°
2026-05-06 19:13 53.77673 -23.18383 28007 ft 465 kts 261°
2026-05-06 19:14 53.76760 -23.29224 28004 ft 464 kts 261°
2026-05-06 19:14 53.75844 -23.39974 28007 ft 464 kts 261°
2026-05-06 19:15 53.74912 -23.50797 28004 ft 464 kts 260°
2026-05-06 19:15 53.73971 -23.61603 28014 ft 464 kts 260°
2026-05-06 19:16 53.73027 -23.72341 28010 ft 464 kts 260°
2026-05-06 19:16 53.72069 -23.83110 28013 ft 464 kts 260°
2026-05-06 19:17 53.71100 -23.93898 28010 ft 464 kts 260°
2026-05-06 19:17 53.70137 -24.04498 28010 ft 464 kts 260°
2026-05-06 19:18 53.69156 -24.15199 28013 ft 463 kts 260°
2026-05-06 19:18 53.68157 -24.25973 28011 ft 463 kts 260°
2026-05-06 19:19 53.67152 -24.36714 28015 ft 463 kts 260°
2026-05-06 19:19 53.66143 -24.47382 28016 ft 463 kts 260°
2026-05-06 19:20 53.65120 -24.58098 28015 ft 463 kts 259°
2026-05-06 19:20 53.64086 -24.68824 28021 ft 462 kts 259°
2026-05-06 19:21 53.63051 -24.79460 28013 ft 462 kts 259°
2026-05-06 19:21 53.62000 -24.90153 28017 ft 462 kts 259°
2026-05-06 19:22 53.60961 -25.00624 28013 ft 462 kts 259°
2026-05-06 19:22 53.59891 -25.11310 28018 ft 461 kts 259°
2026-05-06 19:23 53.58813 -25.21976 28021 ft 461 kts 259°
2026-05-06 19:23 53.57733 -25.32557 28012 ft 461 kts 259°
2026-05-06 19:24 53.56636 -25.43210 28013 ft 461 kts 259°
2026-05-06 19:24 53.55528 -25.53865 28017 ft 462 kts 259°
2026-05-06 19:25 53.54416 -25.64474 28017 ft 462 kts 259°
2026-05-06 19:25 53.53288 -25.75140 28018 ft 463 kts 259°
2026-05-06 19:26 53.52155 -25.85753 28019 ft 463 kts 259°
2026-05-06 19:26 53.51005 -25.96438 28015 ft 464 kts 258°
2026-05-06 19:27 53.49864 -26.06939 28014 ft 464 kts 258°
2026-05-06 19:27 53.48693 -26.17623 28021 ft 464 kts 258°
2026-05-06 19:28 53.47520 -26.28241 28013 ft 465 kts 258°
2026-05-06 19:28 53.46327 -26.38945 28016 ft 465 kts 258°
2026-05-06 19:29 53.45127 -26.49618 28013 ft 465 kts 258°
2026-05-06 19:29 53.43923 -26.60239 28010 ft 466 kts 258°
2026-05-06 19:30 53.42702 -26.70917 28012 ft 466 kts 258°
2026-05-06 19:30 53.41470 -26.81605 28008 ft 466 kts 258°
2026-05-06 19:31 53.40232 -26.92254 28007 ft 467 kts 258°
2026-05-06 19:31 53.38366 -27.08139 28007 ft 467 kts 258°
2026-05-06 19:32 53.37106 -27.18760 28010 ft 467 kts 258°
2026-05-06 19:32 53.35826 -27.29464 28008 ft 468 kts 258°
2026-05-06 19:33 53.34546 -27.40081 28006 ft 468 kts 258°
2026-05-06 19:33 53.33246 -27.50776 28004 ft 468 kts 257°
2026-05-06 19:34 53.31937 -27.61466 28006 ft 468 kts 257°
2026-05-06 19:34 53.30626 -27.72080 28003 ft 468 kts 258°
2026-05-06 19:35 53.29305 -27.82703 28004 ft 468 kts 257°
2026-05-06 19:35 53.27962 -27.93406 27996 ft 469 kts 257°
2026-05-06 19:36 53.27296 -27.98687 27998 ft 470 kts 257°
2026-05-06 19:36 53.26640 -28.03870 27999 ft 470 kts 257°
2026-05-06 19:36 53.25276 -28.14581 27999 ft 471 kts 257°
2026-05-06 19:37 53.24591 -28.19933 27989 ft 471 kts 257°
2026-05-06 19:37 53.23903 -28.25287 28009 ft 471 kts 256°
2026-05-06 19:37 53.23221 -28.30575 27994 ft 471 kts 256°
2026-05-06 19:37 53.22752 -28.34199 27992 ft 471 kts 256°
2026-05-06 19:38 53.21140 -28.46580 28330 ft 463 kts 256°
2026-05-06 19:38 53.20457 -28.51802 28604 ft 458 kts 256°
2026-05-06 19:38 53.19777 -28.56975 28883 ft 453 kts 256°
2026-05-06 19:39 53.19112 -28.62023 29145 ft 449 kts 256°
2026-05-06 19:39 53.18442 -28.67084 29411 ft 444 kts 256°
2026-05-06 19:39 53.17776 -28.72099 29683 ft 440 kts 256°
2026-05-06 19:39 53.17114 -28.77062 29948 ft 435 kts 255°
2026-05-06 19:40 53.16459 -28.81962 30185 ft 430 kts 256°
2026-05-06 19:40 53.15810 -28.86794 30415 ft 425 kts 256°
2026-05-06 19:40 53.15175 -28.91513 30638 ft 419 kts 255°
2026-05-06 19:40 53.14541 -28.96206 30866 ft 413 kts 256°
2026-05-06 19:41 53.13930 -29.00712 31043 ft 408 kts 256°
2026-05-06 19:41 53.13302 -29.05330 31143 ft 406 kts 255°
2026-05-06 19:41 53.12680 -29.09888 31266 ft 402 kts 256°
2026-05-06 19:41 53.12060 -29.14420 31366 ft 398 kts 255°
2026-05-06 19:42 53.11452 -29.18848 31479 ft 395 kts 256°
2026-05-06 19:42 53.10841 -29.23290 31590 ft 390 kts 256°
2026-05-06 19:42 53.10237 -29.27670 31696 ft 386 kts 256°
2026-05-06 19:42 53.09636 -29.32013 31802 ft 382 kts 256°
2026-05-06 19:43 53.08446 -29.40576 31918 ft 376 kts 256°
2026-05-06 19:43 53.07274 -29.48957 31953 ft 372 kts 256°
2026-05-06 19:44 53.06297 -29.55907 31950 ft 368 kts 256°
2026-05-06 19:44 53.04943 -29.65490 31955 ft 363 kts 256°
2026-05-06 19:45 53.03791 -29.73604 31900 ft 361 kts 255°
2026-05-06 19:45 53.02818 -29.80418 31708 ft 362 kts 256°
2026-05-06 19:46 53.02239 -29.84456 31582 ft 365 kts 256°
2026-05-06 19:46 53.01652 -29.88552 31527 ft 364 kts 255°
2026-05-06 19:46 53.00483 -29.96664 31550 ft 359 kts 256°
2026-05-06 19:47 52.99964 -30.00600 31442 ft 360 kts 261°
2026-05-06 19:47 52.99672 -30.04761 31287 ft 363 kts 263°
2026-05-06 19:47 52.99213 -30.13102 31260 ft 359 kts 264°
2026-05-06 19:48 52.98763 -30.21283 31198 ft 358 kts 264°
2026-05-06 19:48 52.98293 -30.29532 31083 ft 357 kts 263°
2026-05-06 19:49 52.97814 -30.37717 31050 ft 355 kts 264°
2026-05-06 19:49 52.97329 -30.45851 30908 ft 356 kts 264°
2026-05-06 19:50 52.96837 -30.54004 30887 ft 353 kts 263°
2026-05-06 19:50 52.96342 -30.62084 30770 ft 354 kts 263°
2026-05-06 19:51 52.95839 -30.70215 30706 ft 352 kts 263°
2026-05-06 19:51 52.95336 -30.78256 30640 ft 351 kts 263°
2026-05-06 19:52 52.94825 -30.86331 30566 ft 351 kts 263°
2026-05-06 19:52 52.94316 -30.94293 30585 ft 348 kts 263°
2026-05-06 19:53 52.93807 -31.02172 30461 ft 349 kts 263°
2026-05-06 19:53 52.93284 -31.10186 30395 ft 348 kts 263°
2026-05-06 19:54 52.92759 -31.18150 30237 ft 351 kts 263°
2026-05-06 19:54 52.92491 -31.22166 30058 ft 356 kts 263°
2026-05-06 19:54 52.92218 -31.26248 30048 ft 355 kts 263°
2026-05-06 19:55 52.91675 -31.34315 30184 ft 349 kts 263°
2026-05-06 19:55 52.91135 -31.42242 30155 ft 348 kts 263°
2026-05-06 19:56 52.90590 -31.50180 30157 ft 346 kts 263°
2026-05-06 19:56 52.90040 -31.58106 30082 ft 346 kts 263°
2026-05-06 19:57 52.89484 -31.66031 30002 ft 346 kts 263°
2026-05-06 19:57 52.88928 -31.73889 30010 ft 344 kts 263°
2026-05-06 19:58 52.88363 -31.81803 29862 ft 346 kts 263°
2026-05-06 19:58 52.87794 -31.89683 29834 ft 345 kts 263°
2026-05-06 19:59 52.87221 -31.97548 29899 ft 342 kts 264°
2026-05-06 19:59 52.86657 -32.05227 29795 ft 343 kts 263°
2026-05-06 20:00 52.86075 -32.13064 29802 ft 341 kts 263°
2026-05-06 20:00 52.85493 -32.20855 29731 ft 341 kts 263°
2026-05-06 20:01 52.84906 -32.28628 29668 ft 341 kts 264°
2026-05-06 20:01 52.84313 -32.36419 29684 ft 340 kts 264°
2026-05-06 20:02 52.83711 -32.44246 29399 ft 347 kts 263°
2026-05-06 20:02 52.83406 -32.48181 29280 ft 349 kts 263°
2026-05-06 20:02 52.83098 -32.52153 29332 ft 347 kts 263°
2026-05-06 20:03 52.82482 -32.60023 29451 ft 343 kts 263°
2026-05-06 20:03 52.81861 -32.67896 29347 ft 345 kts 264°
2026-05-06 20:04 52.81239 -32.75714 29354 ft 344 kts 263°
2026-05-06 20:04 52.80608 -32.83573 29316 ft 344 kts 263°
2026-05-06 20:05 52.79975 -32.91384 29288 ft 344 kts 263°
2026-05-06 20:05 52.79335 -32.99217 29291 ft 343 kts 264°
2026-05-06 20:06 52.78701 -33.06912 29324 ft 342 kts 264°
2026-05-06 20:06 52.78056 -33.14693 29283 ft 342 kts 263°
2026-05-06 20:07 52.77403 -33.22502 29259 ft 342 kts 264°
2026-05-06 20:07 52.76752 -33.30212 29302 ft 340 kts 263°
2026-05-06 20:08 52.76091 -33.37994 29211 ft 342 kts 264°
2026-05-06 20:08 52.75429 -33.45720 29204 ft 341 kts 264°
2026-05-06 20:09 52.74757 -33.53491 29184 ft 342 kts 264°
2026-05-06 20:09 52.74083 -33.61220 29293 ft 338 kts 265°
2026-05-06 20:10 52.73414 -33.68850 29184 ft 341 kts 264°
2026-05-06 20:10 52.73071 -33.72753 28996 ft 346 kts 264°
2026-05-06 20:10 52.72723 -33.76687 28986 ft 346 kts 265°
2026-05-06 20:11 52.72026 -33.84494 29170 ft 340 kts 264°
2026-05-06 20:11 52.71336 -33.92175 29125 ft 341 kts 264°
2026-05-06 20:12 52.70634 -33.99950 29073 ft 342 kts 264°
2026-05-06 20:12 52.69941 -34.07545 29124 ft 340 kts 264°
2026-05-06 20:13 52.69235 -34.15235 29182 ft 338 kts 264°
2026-05-06 20:13 52.68524 -34.22924 29132 ft 339 kts 264°
2026-05-06 20:14 52.67809 -34.30600 29120 ft 339 kts 264°
2026-05-06 20:14 52.67087 -34.38295 29144 ft 338 kts 264°
2026-05-06 20:15 52.66365 -34.45931 29107 ft 339 kts 264°
2026-05-06 20:15 52.65634 -34.53611 29116 ft 339 kts 264°
2026-05-06 20:16 52.64898 -34.61283 29097 ft 339 kts 265°
2026-05-06 20:16 52.64161 -34.68916 29206 ft 335 kts 265°
2026-05-06 20:17 52.63428 -34.76454 29196 ft 336 kts 265°
2026-05-06 20:17 52.62685 -34.84059 29177 ft 336 kts 265°
2026-05-06 20:18 52.61937 -34.91646 29161 ft 336 kts 265°
2026-05-06 20:18 52.61182 -34.99259 29095 ft 338 kts 265°
2026-05-06 20:19 52.60436 -35.06723 29119 ft 337 kts 265°
2026-05-06 20:19 52.59669 -35.14337 29100 ft 336 kts 266°
2026-05-06 20:20 52.58903 -35.21896 29231 ft 333 kts 266°
2026-05-06 20:20 52.58142 -35.29368 29209 ft 333 kts 266°
2026-05-06 20:21 52.57371 -35.36891 29180 ft 334 kts 266°
2026-05-06 20:21 52.56593 -35.44430 29199 ft 333 kts 266°
2026-05-06 20:22 52.55817 -35.51896 29185 ft 333 kts 265°
2026-05-06 20:22 52.55030 -35.59426 29175 ft 333 kts 265°
2026-05-06 20:23 52.54243 -35.66897 29156 ft 333 kts 266°
2026-05-06 20:23 52.53450 -35.74376 29259 ft 330 kts 267°
2026-05-06 20:24 52.52656 -35.81819 29263 ft 330 kts 267°
2026-05-06 20:24 52.51865 -35.89202 29235 ft 331 kts 266°
2026-05-06 20:25 52.51061 -35.96654 29237 ft 330 kts 266°
2026-05-06 20:25 52.50270 -36.03947 29200 ft 332 kts 266°
2026-05-06 20:26 52.49861 -36.07727 28941 ft 341 kts 266°
2026-05-06 20:26 52.49440 -36.11608 28666 ft 349 kts 266°
2026-05-06 20:26 52.49007 -36.15583 28435 ft 358 kts 266°
2026-05-06 20:26 52.48561 -36.19650 28185 ft 366 kts 266°
2026-05-06 20:27 52.47647 -36.27891 28124 ft 372 kts 267°
2026-05-06 20:27 52.46704 -36.36331 28128 ft 378 kts 267°
2026-05-06 20:28 52.45744 -36.44873 28130 ft 383 kts 266°
2026-05-06 20:28 52.44770 -36.53487 28129 ft 388 kts 266°
2026-05-06 20:29 52.43772 -36.62251 28118 ft 392 kts 266°
2026-05-06 20:29 52.42763 -36.71057 28132 ft 397 kts 266°
2026-05-06 20:30 52.41212 -36.84477 28127 ft 402 kts 268°
2026-05-06 20:31 52.40164 -36.93473 28132 ft 407 kts 268°
2026-05-06 20:31 52.39105 -37.02496 28132 ft 411 kts 268°
2026-05-06 20:32 52.38019 -37.11683 28135 ft 415 kts 267°
2026-05-06 20:32 52.37089 -37.19505 28132 ft 419 kts 267°
2026-05-06 20:33 52.35969 -37.28826 28113 ft 420 kts 269°
2026-05-06 20:33 52.34835 -37.38221 28124 ft 422 kts 269°
2026-05-06 20:34 52.33688 -37.47685 28138 ft 426 kts 269°
2026-05-06 20:34 52.32523 -37.57217 28138 ft 429 kts 269°
2026-05-06 20:35 52.31339 -37.66828 28145 ft 433 kts 269°
2026-05-06 20:35 52.30137 -37.76515 28143 ft 436 kts 269°
2026-05-06 20:36 52.28919 -37.86261 28140 ft 439 kts 268°
2026-05-06 20:36 52.27683 -37.96072 28143 ft 442 kts 268°
2026-05-06 20:37 52.26461 -38.05705 28138 ft 444 kts 268°
2026-05-06 20:37 52.25189 -38.15666 28143 ft 446 kts 268°
2026-05-06 20:38 52.23920 -38.25528 28148 ft 448 kts 268°
2026-05-06 20:38 52.22629 -38.35467 28138 ft 447 kts 270°
2026-05-06 20:39 52.21337 -38.45381 28140 ft 447 kts 270°
2026-05-06 20:39 52.20035 -38.55302 28148 ft 447 kts 270°
2026-05-06 20:40 52.18726 -38.65202 28148 ft 447 kts 269°
2026-05-06 20:40 52.17415 -38.75048 28149 ft 447 kts 269°
2026-05-06 20:41 52.16087 -38.84953 28103 ft 446 kts 269°
2026-05-06 20:41 52.14764 -38.94743 28148 ft 444 kts 269°
2026-05-06 20:42 52.13447 -39.04446 28153 ft 444 kts 269°
2026-05-06 20:42 52.12103 -39.14277 28153 ft 444 kts 269°
2026-05-06 20:43 52.10751 -39.24100 28150 ft 444 kts 269°
2026-05-06 20:43 52.09391 -39.33911 28082 ft 444 kts 268°
2026-05-06 20:44 52.08031 -39.43653 28150 ft 444 kts 268°
2026-05-06 20:44 52.06656 -39.53451 28159 ft 444 kts 268°
2026-05-06 20:45 52.05273 -39.63241 28154 ft 445 kts 268°
2026-05-06 20:45 52.03887 -39.72986 28139 ft 445 kts 268°
2026-05-06 20:46 52.02485 -39.82779 28152 ft 445 kts 267°
2026-05-06 20:46 52.01073 -39.92594 28152 ft 445 kts 266°
2026-05-06 20:47 51.99839 -40.02166 28150 ft 438 kts 272°
2026-05-06 20:47 51.99297 -40.11981 28148 ft 435 kts 274°
2026-05-06 20:48 51.98758 -40.21746 28165 ft 436 kts 274°
2026-05-06 20:48 51.98189 -40.31595 28164 ft 437 kts 274°
2026-05-06 20:49 51.97611 -40.41361 28114 ft 437 kts 273°
2026-05-06 20:49 51.97021 -40.51198 28158 ft 437 kts 273°
2026-05-06 20:50 51.96424 -40.61033 28165 ft 438 kts 273°
2026-05-06 20:50 51.95821 -40.70823 28149 ft 439 kts 273°
2026-05-06 20:51 51.95205 -40.80703 28160 ft 440 kts 272°
2026-05-06 20:51 51.94583 -40.90522 28164 ft 440 kts 272°
2026-05-06 20:52 51.93958 -41.00280 28124 ft 441 kts 272°
2026-05-06 20:52 51.93315 -41.10174 28155 ft 442 kts 272°
2026-05-06 20:53 51.92666 -41.20037 28158 ft 443 kts 272°
2026-05-06 20:53 51.92002 -41.29991 28159 ft 444 kts 272°
2026-05-06 20:54 51.91329 -41.39962 28154 ft 445 kts 272°
2026-05-06 20:54 51.90650 -41.49881 28158 ft 446 kts 272°
2026-05-06 20:55 51.89958 -41.59883 28117 ft 446 kts 271°
2026-05-06 20:55 51.89255 -41.69893 28153 ft 447 kts 271°
2026-05-06 20:56 51.88547 -41.79859 28161 ft 448 kts 270°
2026-05-06 20:56 51.87826 -41.89896 28159 ft 449 kts 270°
2026-05-06 20:57 51.87094 -41.99959 28155 ft 450 kts 270°
2026-05-06 20:57 51.86367 -42.09838 28159 ft 451 kts 270°
2026-05-06 20:58 51.85614 -42.19939 28154 ft 451 kts 270°
2026-05-06 20:58 51.84857 -42.29978 28155 ft 452 kts 270°
2026-05-06 20:59 51.84087 -42.40077 28157 ft 453 kts 269°
2026-05-06 20:59 51.83306 -42.50203 28151 ft 453 kts 269°
2026-05-06 21:00 51.82522 -42.60256 28153 ft 454 kts 269°
2026-05-06 21:00 51.81720 -42.70418 28153 ft 455 kts 269°
2026-05-06 21:01 51.80909 -42.80577 28146 ft 455 kts 269°
2026-05-06 21:01 51.80094 -42.90684 28155 ft 456 kts 269°
2026-05-06 21:02 51.79276 -43.00713 28146 ft 456 kts 269°
2026-05-06 21:02 51.78436 -43.10904 28145 ft 457 kts 269°
2026-05-06 21:03 51.77591 -43.21044 28139 ft 458 kts 269°
2026-05-06 21:03 51.76731 -43.31248 28128 ft 458 kts 268°
2026-05-06 21:04 51.75862 -43.41456 28142 ft 458 kts 268°
2026-05-06 21:04 51.74988 -43.51614 28139 ft 459 kts 268°
2026-05-06 21:05 51.74099 -43.61836 28148 ft 459 kts 268°
2026-05-06 21:05 51.73205 -43.72017 28145 ft 460 kts 268°
2026-05-06 21:06 51.72303 -43.82184 28136 ft 460 kts 268°
2026-05-06 21:06 51.71385 -43.92421 28129 ft 460 kts 267°
2026-05-06 21:07 51.70478 -44.02438 28132 ft 460 kts 267°
2026-05-06 21:07 51.69545 -44.12648 28132 ft 460 kts 267°
2026-05-06 21:08 51.68601 -44.22868 28140 ft 461 kts 266°
2026-05-06 21:08 51.67648 -44.33095 28132 ft 461 kts 266°
2026-05-06 21:09 51.66687 -44.43303 28104 ft 461 kts 265°
2026-05-06 21:09 51.65714 -44.53529 28125 ft 461 kts 265°
2026-05-06 21:10 51.64739 -44.63691 28129 ft 461 kts 265°
2026-05-06 21:10 51.63750 -44.73908 28126 ft 461 kts 265°
2026-05-06 21:11 51.62758 -44.84057 28121 ft 461 kts 265°
2026-05-06 21:11 51.61749 -44.94277 28122 ft 461 kts 265°
2026-05-06 21:12 51.60755 -45.04271 28109 ft 461 kts 264°
2026-05-06 21:12 51.59727 -45.14495 28122 ft 461 kts 264°
2026-05-06 21:13 51.58696 -45.24648 28121 ft 462 kts 264°
2026-05-06 21:13 51.57653 -45.34848 28124 ft 462 kts 264°
2026-05-06 21:14 51.56601 -45.45043 28122 ft 462 kts 264°
2026-05-06 21:14 51.55539 -45.55241 28092 ft 462 kts 263°
2026-05-06 21:15 51.54475 -45.65374 28119 ft 462 kts 263°
2026-05-06 21:15 51.53394 -45.75570 28118 ft 462 kts 263°
2026-05-06 21:16 51.52305 -45.85758 28120 ft 462 kts 263°
2026-05-06 21:16 51.51207 -45.95949 28124 ft 463 kts 263°
2026-05-06 21:17 51.50120 -46.05940 28112 ft 463 kts 262°
2026-05-06 21:17 51.49004 -46.16123 28107 ft 463 kts 262°
2026-05-06 21:18 51.47884 -46.26253 28115 ft 463 kts 262°
2026-05-06 21:18 51.46750 -46.36429 28120 ft 463 kts 262°
2026-05-06 21:19 51.45612 -46.46552 28113 ft 463 kts 262°
2026-05-06 21:19 51.44654 -46.55022 28115 ft 463 kts 262°
2026-05-06 21:20 51.43493 -46.65195 28116 ft 463 kts 262°
2026-05-06 21:20 51.42323 -46.75380 28117 ft 463 kts 261°
2026-05-06 21:21 51.41152 -46.85478 28111 ft 464 kts 261°
2026-05-06 21:21 51.39963 -46.95647 28115 ft 464 kts 261°
2026-05-06 21:22 51.38790 -47.05616 28116 ft 464 kts 261°
2026-05-06 21:22 51.37582 -47.15790 28112 ft 464 kts 261°
2026-05-06 21:23 51.36368 -47.25943 28107 ft 464 kts 261°
2026-05-06 21:23 51.35153 -47.36028 28113 ft 464 kts 260°
2026-05-06 21:24 51.33918 -47.46195 28108 ft 464 kts 260°
2026-05-06 21:24 51.32676 -47.56344 28112 ft 464 kts 260°
2026-05-06 21:25 51.31434 -47.66414 28109 ft 465 kts 260°
2026-05-06 21:25 51.30171 -47.76582 28104 ft 465 kts 260°
2026-05-06 21:26 51.28907 -47.86685 28104 ft 465 kts 259°
2026-05-06 21:26 51.27628 -47.96822 28108 ft 465 kts 259°
2026-05-06 21:27 51.26363 -48.06779 28105 ft 466 kts 259°
2026-05-06 21:27 51.25066 -48.16917 28108 ft 466 kts 259°
2026-05-06 21:28 51.23755 -48.27092 28109 ft 466 kts 259°
2026-05-06 21:28 51.22447 -48.37169 28095 ft 467 kts 259°
2026-05-06 21:29 51.21119 -48.47321 28108 ft 467 kts 259°
2026-05-06 21:29 51.19781 -48.57482 28107 ft 467 kts 259°
2026-05-06 21:30 51.18439 -48.67597 28109 ft 467 kts 259°
2026-05-06 21:30 51.17092 -48.77685 28104 ft 467 kts 259°
2026-05-06 21:31 51.15723 -48.87859 28108 ft 468 kts 258°
2026-05-06 21:31 51.14356 -48.97951 28107 ft 468 kts 258°
2026-05-06 21:32 51.12995 -49.07928 28100 ft 468 kts 258°
2026-05-06 21:32 51.10912 -49.23072 28106 ft 468 kts 258°
2026-05-06 21:33 51.09507 -49.33194 28107 ft 468 kts 258°
2026-05-06 21:33 51.08095 -49.43302 28095 ft 467 kts 258°
2026-05-06 21:34 51.06686 -49.53321 28104 ft 467 kts 258°
2026-05-06 21:34 51.05257 -49.63417 28103 ft 467 kts 258°
2026-05-06 21:35 51.03826 -49.73457 28107 ft 467 kts 258°
2026-05-06 21:35 51.02380 -49.83542 28103 ft 467 kts 258°
2026-05-06 21:36 51.00935 -49.93559 28104 ft 467 kts 258°
2026-05-06 21:36 50.99273 -50.03360 28092 ft 468 kts 250°
2026-05-06 21:37 50.96920 -50.12999 28112 ft 468 kts 250°
2026-05-06 21:37 50.94579 -50.22569 28097 ft 467 kts 250°
2026-05-06 21:38 50.92242 -50.32189 28105 ft 467 kts 250°
2026-05-06 21:38 50.89907 -50.41805 28105 ft 466 kts 250°
2026-05-06 21:39 50.87571 -50.51387 28101 ft 466 kts 250°
2026-05-06 21:39 50.85237 -50.60917 28101 ft 467 kts 250°
2026-05-06 21:40 50.82876 -50.70510 28104 ft 467 kts 250°
2026-05-06 21:40 50.80526 -50.80016 28103 ft 467 kts 250°
2026-05-06 21:41 50.78145 -50.89609 28104 ft 467 kts 249°
2026-05-06 21:41 50.75774 -50.99119 28099 ft 467 kts 249°
2026-05-06 21:42 50.73419 -51.08525 28104 ft 467 kts 249°
2026-05-06 21:42 50.71021 -51.18064 28105 ft 467 kts 249°
2026-05-06 21:43 50.68628 -51.27541 28103 ft 466 kts 249°
2026-05-06 21:43 50.66219 -51.37041 28090 ft 466 kts 249°
2026-05-06 21:44 50.63801 -51.46537 28103 ft 465 kts 249°
2026-05-06 21:44 50.61393 -51.55955 28102 ft 465 kts 249°
2026-05-06 21:45 50.58962 -51.65420 28094 ft 465 kts 249°
2026-05-06 21:45 50.56541 -51.74810 28095 ft 465 kts 249°
2026-05-06 21:46 50.54094 -51.84264 28087 ft 465 kts 249°
2026-05-06 21:46 50.51656 -51.93650 28096 ft 465 kts 249°
2026-05-06 21:47 50.49365 -52.02985 28090 ft 464 kts 253°
2026-05-06 21:47 50.47508 -52.12689 28104 ft 463 kts 254°
2026-05-06 21:48 50.45654 -52.22329 28093 ft 463 kts 253°
2026-05-06 21:48 50.43770 -52.31995 28087 ft 462 kts 253°
2026-05-06 21:49 50.41886 -52.41578 28088 ft 461 kts 253°
2026-05-06 21:49 50.39983 -52.51206 28085 ft 461 kts 253°
2026-05-06 21:50 50.38074 -52.60810 28086 ft 461 kts 253°
2026-05-06 21:50 50.36161 -52.70398 28088 ft 460 kts 253°
2026-05-06 21:51 50.34252 -52.79913 28067 ft 460 kts 253°
2026-05-06 21:51 50.32324 -52.89481 28080 ft 460 kts 253°
2026-05-06 21:52 50.30386 -52.99056 28091 ft 460 kts 252°
2026-05-06 21:52 50.28485 -53.08392 28078 ft 460 kts 252°
2026-05-06 21:53 50.26532 -53.17937 28079 ft 460 kts 252°
2026-05-06 21:53 50.24575 -53.27459 28082 ft 460 kts 252°
2026-05-06 21:54 50.22623 -53.36918 28075 ft 459 kts 252°
2026-05-06 21:54 50.20649 -53.46434 28070 ft 459 kts 252°
2026-05-06 21:55 50.18671 -53.55923 28074 ft 459 kts 252°
2026-05-06 21:55 50.16695 -53.65362 28074 ft 460 kts 252°
2026-05-06 21:56 50.14698 -53.74851 28071 ft 460 kts 252°
2026-05-06 21:56 50.12706 -53.84274 28071 ft 459 kts 252°
2026-05-06 21:57 50.10694 -53.93746 28069 ft 459 kts 252°
2026-05-06 21:57 50.08725 -54.02978 28071 ft 459 kts 252°
2026-05-06 21:58 50.06700 -54.12423 28062 ft 458 kts 251°
2026-05-06 21:58 50.04674 -54.21835 28062 ft 458 kts 251°
2026-05-06 21:59 50.02652 -54.31182 28058 ft 458 kts 251°
2026-05-06 21:59 50.00610 -54.40575 28062 ft 458 kts 251°
2026-05-06 22:00 49.98569 -54.49929 28064 ft 458 kts 251°
2026-05-06 22:00 49.96514 -54.59299 28063 ft 457 kts 251°
2026-05-06 22:01 49.94463 -54.68608 28065 ft 457 kts 251°
2026-05-06 22:01 49.92393 -54.77963 28048 ft 457 kts 251°
2026-05-06 22:02 49.90319 -54.87294 28054 ft 457 kts 251°
2026-05-06 22:02 49.88253 -54.96550 28054 ft 456 kts 250°
2026-05-06 22:03 49.86197 -55.05720 28056 ft 456 kts 250°
2026-05-06 22:03 49.84102 -55.15019 28053 ft 456 kts 250°
2026-05-06 22:04 49.82016 -55.24243 28047 ft 456 kts 250°
2026-05-06 22:04 49.79905 -55.33531 28054 ft 456 kts 250°
2026-05-06 22:05 49.77792 -55.42791 28077 ft 456 kts 250°
2026-05-06 22:05 49.75686 -55.51980 28057 ft 456 kts 250°
2026-05-06 22:06 49.73556 -55.61230 28052 ft 455 kts 250°
2026-05-06 22:06 49.71432 -55.70420 28033 ft 455 kts 250°
2026-05-06 22:07 49.69652 -55.78089 28046 ft 455 kts 250°
2026-05-06 22:07 49.67507 -55.87295 28055 ft 455 kts 250°
2026-05-06 22:08 49.65355 -55.96491 28051 ft 455 kts 249°
2026-05-06 22:08 49.63239 -56.05495 28061 ft 455 kts 249°
2026-05-06 22:09 49.61073 -56.14670 28056 ft 455 kts 249°
2026-05-06 22:09 49.58897 -56.23853 28050 ft 455 kts 249°
2026-05-06 22:10 49.56729 -56.32964 28064 ft 455 kts 249°
2026-05-06 22:10 49.54540 -56.42122 28053 ft 455 kts 249°
2026-05-06 22:11 49.52341 -56.51286 28060 ft 455 kts 249°
2026-05-06 22:11 49.50147 -56.60390 28060 ft 455 kts 249°
2026-05-06 22:12 49.47934 -56.69535 28055 ft 456 kts 249°
2026-05-06 22:12 49.45710 -56.78686 28055 ft 456 kts 249°
2026-05-06 22:13 49.43494 -56.87768 28065 ft 456 kts 249°
2026-05-06 22:13 49.41256 -56.96901 28059 ft 457 kts 249°
2026-05-06 22:14 49.39042 -57.05900 28069 ft 456 kts 249°
2026-05-06 22:14 49.36789 -57.15017 28063 ft 456 kts 249°
2026-05-06 22:15 49.34545 -57.24064 28063 ft 455 kts 249°
2026-05-06 22:15 49.32288 -57.33128 28056 ft 454 kts 249°
2026-05-06 22:16 49.30037 -57.42129 28059 ft 454 kts 249°
2026-05-06 22:16 49.27768 -57.51168 28057 ft 453 kts 249°
2026-05-06 22:17 49.25496 -57.60180 28056 ft 453 kts 249°
2026-05-06 22:17 49.23237 -57.69104 28053 ft 453 kts 249°
2026-05-06 22:18 49.20952 -57.78098 28047 ft 453 kts 248°
2026-05-06 22:18 49.18659 -57.87090 28054 ft 452 kts 248°
2026-05-06 22:19 49.16379 -57.95989 28044 ft 452 kts 248°
2026-05-06 22:19 49.14110 -58.04814 28050 ft 452 kts 248°
2026-05-06 22:20 49.11814 -58.13708 28042 ft 452 kts 248°
2026-05-06 22:20 49.09501 -58.22634 28039 ft 452 kts 248°
2026-05-06 22:21 49.07180 -58.31556 28029 ft 451 kts 248°
2026-05-06 22:21 49.04866 -58.40416 28027 ft 451 kts 248°
2026-05-06 22:22 49.02533 -58.49318 28026 ft 451 kts 248°
2026-05-06 22:22 49.00208 -58.58149 28055 ft 451 kts 247°
2026-05-06 22:23 48.97873 -58.66988 28020 ft 450 kts 247°
2026-05-06 22:23 48.95529 -58.75827 28013 ft 449 kts 247°
2026-05-06 22:24 48.93203 -58.84566 28019 ft 448 kts 247°
2026-05-06 22:24 48.90856 -58.93350 27996 ft 447 kts 247°
2026-05-06 22:25 48.89684 -58.97721 27999 ft 446 kts 247°
2026-05-06 22:25 48.88547 -59.01959 28002 ft 446 kts 247°
2026-05-06 22:25 48.86212 -59.10632 28007 ft 445 kts 247°
2026-05-06 22:26 48.83859 -59.19339 27996 ft 444 kts 247°
2026-05-06 22:26 48.82683 -59.23679 27996 ft 444 kts 247°
2026-05-06 22:26 48.81518 -59.27969 27999 ft 444 kts 247°
2026-05-06 22:27 48.79159 -59.36635 28001 ft 444 kts 246°
2026-05-06 22:27 48.76796 -59.45284 28001 ft 443 kts 246°
2026-05-06 22:28 48.75613 -59.49602 27990 ft 443 kts 246°
2026-05-06 22:28 48.74444 -59.53859 27992 ft 442 kts 246°
2026-05-06 22:28 48.73260 -59.58166 27994 ft 442 kts 246°
2026-05-06 22:28 48.72074 -59.62471 27994 ft 441 kts 246°
2026-05-06 22:29 48.70890 -59.66762 27996 ft 441 kts 246°
2026-05-06 22:29 48.69704 -59.71050 27995 ft 441 kts 246°
2026-05-06 22:29 48.68517 -59.75335 27994 ft 441 kts 246°
2026-05-06 22:29 48.67328 -59.79620 27988 ft 441 kts 246°
2026-05-06 22:30 48.66155 -59.83839 27984 ft 440 kts 246°
2026-05-06 22:30 48.64964 -59.88119 27989 ft 440 kts 246°
2026-05-06 22:30 48.63771 -59.92394 27993 ft 440 kts 246°
2026-05-06 22:30 48.62579 -59.96659 27994 ft 439 kts 246°
2026-05-06 22:31 48.61418 -60.00803 27993 ft 439 kts 246°
2026-05-06 22:31 48.60239 -60.05009 27994 ft 439 kts 246°
2026-05-06 22:31 48.57847 -60.13517 27997 ft 439 kts 246°
2026-05-06 22:32 48.56650 -60.17761 27989 ft 439 kts 246°
2026-05-06 22:32 48.55450 -60.22007 27980 ft 439 kts 246°
2026-05-06 22:32 48.54265 -60.26195 27976 ft 438 kts 245°
2026-05-06 22:32 48.53065 -60.30426 27978 ft 438 kts 245°
2026-05-06 22:33 48.51863 -60.34658 27977 ft 438 kts 245°
2026-05-06 22:33 48.50662 -60.38882 27970 ft 437 kts 245°
2026-05-06 22:33 48.49457 -60.43109 27971 ft 437 kts 245°
2026-05-06 22:33 48.48254 -60.47325 27972 ft 437 kts 245°
2026-05-06 22:34 48.47049 -60.51537 27962 ft 437 kts 245°
2026-05-06 22:34 48.45858 -60.55696 27965 ft 437 kts 245°
2026-05-06 22:34 48.44649 -60.59908 27964 ft 437 kts 245°
2026-05-06 22:34 48.43439 -60.64118 27964 ft 437 kts 245°
2026-05-06 22:35 48.42244 -60.68268 27942 ft 436 kts 245°
2026-05-06 22:35 48.41035 -60.72457 27947 ft 436 kts 245°
2026-05-06 22:35 48.39820 -60.76662 27954 ft 436 kts 245°
2026-05-06 22:35 48.38609 -60.80847 27988 ft 436 kts 245°
2026-05-06 22:36 48.37391 -60.85045 27963 ft 436 kts 245°
2026-05-06 22:36 48.36176 -60.89229 27962 ft 436 kts 245°
2026-05-06 22:36 48.34960 -60.93409 27954 ft 436 kts 245°
2026-05-06 22:36 48.33739 -60.97596 27950 ft 436 kts 245°
2026-05-06 22:37 48.32571 -61.01597 27943 ft 436 kts 245°
2026-05-06 22:37 48.31349 -61.05777 27945 ft 436 kts 245°
2026-05-06 22:37 48.30124 -61.09956 27946 ft 436 kts 245°
2026-05-06 22:37 48.28898 -61.14134 27936 ft 435 kts 245°
2026-05-06 22:38 48.27677 -61.18289 27943 ft 435 kts 245°
2026-05-06 22:38 48.26464 -61.22408 27942 ft 435 kts 245°
2026-05-06 22:38 48.25241 -61.26554 27942 ft 435 kts 245°
2026-05-06 22:38 48.24014 -61.30707 27944 ft 435 kts 245°
2026-05-06 22:39 48.22785 -61.34859 27941 ft 435 kts 245°
2026-05-06 22:39 48.21551 -61.39022 27947 ft 435 kts 245°
2026-05-06 22:39 48.20319 -61.43168 27947 ft 435 kts 244°
2026-05-06 22:39 48.19100 -61.47266 27943 ft 435 kts 244°
2026-05-06 22:40 48.17865 -61.51411 27947 ft 435 kts 244°
2026-05-06 22:40 48.16629 -61.55553 27945 ft 435 kts 244°
2026-05-06 22:40 48.15388 -61.59703 27938 ft 435 kts 244°
2026-05-06 22:40 48.14145 -61.63853 27939 ft 435 kts 244°
2026-05-06 22:41 48.11660 -61.72130 27939 ft 435 kts 244°
2026-05-06 22:41 48.10432 -61.76210 27937 ft 435 kts 244°
2026-05-06 22:41 48.09181 -61.80358 27942 ft 435 kts 244°
2026-05-06 22:42 48.07935 -61.84486 27927 ft 435 kts 244°
2026-05-06 22:42 48.06686 -61.88612 27932 ft 435 kts 244°
2026-05-06 22:42 48.05453 -61.92682 27933 ft 435 kts 244°
2026-05-06 22:42 48.04199 -61.96813 27922 ft 435 kts 244°
2026-05-06 22:43 48.02979 -62.00826 27921 ft 435 kts 244°
2026-05-06 22:43 48.01723 -62.04952 27924 ft 435 kts 244°
2026-05-06 22:43 48.00481 -62.09023 27928 ft 435 kts 244°
2026-05-06 22:43 47.99228 -62.13125 27921 ft 435 kts 244°
2026-05-06 22:44 47.97966 -62.17247 27930 ft 436 kts 244°
2026-05-06 22:44 47.96703 -62.21368 27924 ft 436 kts 244°
2026-05-06 22:44 47.95438 -62.25487 27955 ft 436 kts 243°
2026-05-06 22:44 47.94170 -62.29611 27918 ft 437 kts 243°
2026-05-06 22:45 47.92915 -62.33684 27933 ft 436 kts 243°
2026-05-06 22:45 47.91644 -62.37804 27921 ft 436 kts 243°
2026-05-06 22:45 47.90373 -62.41917 27907 ft 436 kts 243°
2026-05-06 22:45 47.89092 -62.46055 27922 ft 436 kts 243°
2026-05-06 22:46 47.87837 -62.50102 27904 ft 436 kts 243°
2026-05-06 22:46 47.86559 -62.54217 27921 ft 436 kts 243°
2026-05-06 22:46 47.85272 -62.58352 27906 ft 436 kts 243°
2026-05-06 22:46 47.84007 -62.62413 27915 ft 436 kts 243°
2026-05-06 22:47 47.82726 -62.66515 27913 ft 437 kts 243°
2026-05-06 22:47 47.81439 -62.70634 27900 ft 437 kts 243°
2026-05-06 22:47 47.80170 -62.74684 27910 ft 436 kts 243°
2026-05-06 22:47 47.78885 -62.78783 27897 ft 437 kts 243°
2026-05-06 22:48 47.77594 -62.82891 27913 ft 436 kts 243°
2026-05-06 22:48 47.76308 -62.86980 27899 ft 436 kts 243°
2026-05-06 22:48 47.75030 -62.91032 27915 ft 436 kts 243°
2026-05-06 22:48 47.73741 -62.95118 27941 ft 436 kts 242°
2026-05-06 22:49 47.72447 -62.99211 27905 ft 437 kts 242°
2026-05-06 22:49 47.71191 -63.03175 27908 ft 436 kts 242°
2026-05-06 22:49 47.69911 -63.07209 27901 ft 436 kts 242°
2026-05-06 22:49 47.68617 -63.11282 27897 ft 436 kts 242°
2026-05-06 22:50 47.67318 -63.15363 27899 ft 436 kts 242°
2026-05-06 22:50 47.66018 -63.19442 27898 ft 436 kts 242°
2026-05-06 22:50 47.64720 -63.23507 27879 ft 435 kts 242°
2026-05-06 22:50 47.63439 -63.27516 27885 ft 435 kts 242°
2026-05-06 22:51 47.62136 -63.31584 27891 ft 435 kts 242°
2026-05-06 22:51 47.60835 -63.35639 27891 ft 435 kts 242°
2026-05-06 22:51 47.59530 -63.39700 27891 ft 435 kts 242°
2026-05-06 22:51 47.58225 -63.43754 27890 ft 435 kts 242°
2026-05-06 22:52 47.56935 -63.47756 27892 ft 435 kts 242°
2026-05-06 22:52 47.55629 -63.51801 27891 ft 435 kts 242°
2026-05-06 22:52 47.54316 -63.55862 27886 ft 435 kts 242°
2026-05-06 22:52 47.53005 -63.59913 27885 ft 436 kts 242°
2026-05-06 22:53 47.51690 -63.63966 27872 ft 436 kts 242°
2026-05-06 22:53 47.50393 -63.67957 27882 ft 436 kts 242°
2026-05-06 22:53 47.49076 -63.72005 27886 ft 436 kts 242°
2026-05-06 22:53 47.47759 -63.76046 27885 ft 436 kts 242°
2026-05-06 22:54 47.46437 -63.80095 27878 ft 437 kts 242°
2026-05-06 22:54 47.45112 -63.84148 27880 ft 437 kts 242°
2026-05-06 22:54 47.44233 -63.86832 27881 ft 437 kts 242°
2026-05-06 22:54 47.42906 -63.90882 27880 ft 437 kts 242°
2026-05-06 22:55 47.41146 -63.96240 27879 ft 437 kts 242°
2026-05-06 22:55 47.40247 -63.98973 27880 ft 437 kts 242°
2026-05-06 22:55 47.38971 -64.02846 27868 ft 438 kts 242°
2026-05-06 22:55 47.37637 -64.06892 27888 ft 438 kts 242°
2026-05-06 22:56 47.36298 -64.10944 27885 ft 438 kts 242°
2026-05-06 22:56 47.34961 -64.14985 27872 ft 438 kts 242°
2026-05-06 22:56 47.33633 -64.18991 27885 ft 438 kts 242°
2026-05-06 22:56 47.32292 -64.23033 27871 ft 439 kts 242°
2026-05-06 22:57 47.30944 -64.27086 27878 ft 439 kts 242°
2026-05-06 22:57 47.29596 -64.31134 27906 ft 439 kts 241°
2026-05-06 22:57 47.28248 -64.35177 27882 ft 440 kts 241°
2026-05-06 22:57 47.26900 -64.39212 27884 ft 440 kts 241°
2026-05-06 22:58 47.25546 -64.43260 27865 ft 440 kts 241°
2026-05-06 22:58 47.24206 -64.47260 27874 ft 440 kts 241°
2026-05-06 22:58 47.22851 -64.51298 27877 ft 440 kts 241°
2026-05-06 22:58 47.21496 -64.55330 27877 ft 440 kts 241°
2026-05-06 22:59 47.20135 -64.59373 27867 ft 440 kts 241°
2026-05-06 22:59 47.18774 -64.63410 27866 ft 440 kts 241°
2026-05-06 22:59 47.17412 -64.67442 27866 ft 440 kts 241°
2026-05-06 22:59 47.16048 -64.71474 27866 ft 440 kts 241°
2026-05-06 23:00 47.14685 -64.75499 27892 ft 440 kts 240°
2026-05-06 23:00 47.13331 -64.79487 27864 ft 440 kts 241°
2026-05-06 23:00 47.11961 -64.83516 27868 ft 440 kts 241°
2026-05-06 23:00 47.10589 -64.87553 27866 ft 440 kts 241°
2026-05-06 23:01 47.09234 -64.91530 27865 ft 440 kts 241°
2026-05-06 23:01 47.07860 -64.95556 27861 ft 441 kts 241°
2026-05-06 23:01 47.06483 -64.99587 27903 ft 441 kts 240°
2026-05-06 23:01 47.05150 -65.03479 27865 ft 441 kts 240°
2026-05-06 23:02 47.03773 -65.07494 27871 ft 441 kts 240°
2026-05-06 23:02 47.02391 -65.11516 27866 ft 441 kts 240°
2026-05-06 23:02 47.01007 -65.15540 27874 ft 441 kts 240°
2026-05-06 23:02 46.99646 -65.19491 27870 ft 441 kts 240°
2026-05-06 23:03 46.98261 -65.23505 27865 ft 441 kts 240°
2026-05-06 23:03 46.96869 -65.27533 27869 ft 441 kts 240°
2026-05-06 23:03 46.95483 -65.31538 27876 ft 441 kts 240°
2026-05-06 23:03 46.94095 -65.35545 27881 ft 441 kts 240°
2026-05-06 23:04 46.92705 -65.39550 27869 ft 441 kts 240°
2026-05-06 23:04 46.91327 -65.43511 27872 ft 441 kts 240°
2026-05-06 23:04 46.89930 -65.47523 27870 ft 441 kts 240°
2026-05-06 23:04 46.88536 -65.51522 27874 ft 441 kts 240°
2026-05-06 23:05 46.87133 -65.55538 27868 ft 441 kts 240°
2026-05-06 23:05 46.85737 -65.59529 27855 ft 441 kts 240°
2026-05-06 23:05 46.84355 -65.63476 27864 ft 441 kts 240°
2026-05-06 23:05 46.82951 -65.67477 27892 ft 442 kts 240°
2026-05-06 23:06 46.81542 -65.71486 27869 ft 442 kts 240°
2026-05-06 23:06 46.80151 -65.75439 27869 ft 442 kts 240°
2026-05-06 23:06 46.78741 -65.79441 27862 ft 442 kts 240°
2026-05-06 23:06 46.77329 -65.83442 27861 ft 442 kts 240°
2026-05-06 23:07 46.75917 -65.87437 27863 ft 442 kts 240°
2026-05-06 23:07 46.74502 -65.91435 27859 ft 442 kts 240°
2026-05-06 23:07 46.73102 -65.95383 27860 ft 442 kts 240°
2026-05-06 23:07 46.71686 -65.99369 27852 ft 442 kts 240°
2026-05-06 23:08 46.70312 -66.03234 27855 ft 442 kts 240°
2026-05-06 23:08 46.68898 -66.07205 27861 ft 442 kts 240°
2026-05-06 23:08 46.67475 -66.11194 27863 ft 442 kts 240°
2026-05-06 23:08 46.66058 -66.15162 27863 ft 442 kts 240°
2026-05-06 23:09 46.64654 -66.19088 27854 ft 442 kts 240°
2026-05-06 23:09 46.63231 -66.23059 27856 ft 442 kts 240°
2026-05-06 23:09 46.61804 -66.27036 27849 ft 442 kts 240°
2026-05-06 23:09 46.60375 -66.31012 27898 ft 442 kts 240°
2026-05-06 23:10 46.58947 -66.34981 27850 ft 443 kts 240°
2026-05-06 23:10 46.57533 -66.38904 27853 ft 442 kts 240°
2026-05-06 23:10 46.56101 -66.42870 27851 ft 442 kts 240°
2026-05-06 23:10 46.54669 -66.46833 27841 ft 442 kts 240°
2026-05-06 23:11 46.53234 -66.50796 27837 ft 442 kts 240°
2026-05-06 23:11 46.51816 -66.54708 27823 ft 442 kts 239°
2026-05-06 23:11 46.50382 -66.58658 27841 ft 442 kts 239°
2026-05-06 23:11 46.48942 -66.62620 27836 ft 442 kts 239°
2026-05-06 23:12 46.47505 -66.66566 27829 ft 442 kts 239°
2026-05-06 23:12 46.46083 -66.70465 27831 ft 441 kts 239°
2026-05-06 23:12 46.44640 -66.74415 27827 ft 441 kts 239°
2026-05-06 23:12 46.43196 -66.78363 27828 ft 441 kts 239°
2026-05-06 23:13 46.41771 -66.82255 27829 ft 441 kts 239°
2026-05-06 23:13 46.40331 -66.86181 27818 ft 441 kts 239°
2026-05-06 23:13 46.38891 -66.90101 27826 ft 441 kts 239°
2026-05-06 23:13 46.37445 -66.94031 27844 ft 441 kts 239°
2026-05-06 23:14 46.35994 -66.97970 27831 ft 442 kts 239°
2026-05-06 23:14 46.34605 -67.01733 27827 ft 442 kts 239°
2026-05-06 23:14 46.33152 -67.05665 27817 ft 442 kts 239°
2026-05-06 23:14 46.31700 -67.09591 27826 ft 441 kts 239°
2026-05-06 23:15 46.30249 -67.13506 27801 ft 441 kts 239°
2026-05-06 23:15 46.28795 -67.17425 27807 ft 441 kts 239°
2026-05-06 23:15 46.27337 -67.21350 27809 ft 441 kts 239°
2026-05-06 23:15 46.25903 -67.25202 27809 ft 441 kts 239°
2026-05-06 23:16 46.24444 -67.29119 27808 ft 441 kts 239°
2026-05-06 23:16 46.22986 -67.33023 27800 ft 441 kts 239°
2026-05-06 23:16 46.21529 -67.36922 27810 ft 441 kts 239°
2026-05-06 23:16 46.20087 -67.40774 27810 ft 441 kts 239°
2026-05-06 23:17 46.18627 -67.44670 27804 ft 441 kts 239°
2026-05-06 23:17 46.17168 -67.48557 27795 ft 441 kts 239°
2026-05-06 23:17 46.15704 -67.52452 27780 ft 441 kts 239°
2026-05-06 23:17 46.14238 -67.56345 27786 ft 441 kts 239°
2026-05-06 23:18 46.12787 -67.60195 27804 ft 441 kts 239°
2026-05-06 23:18 46.11321 -67.64078 27788 ft 441 kts 239°
2026-05-06 23:18 46.09849 -67.67973 27781 ft 440 kts 239°
2026-05-06 23:18 46.08381 -67.71853 27777 ft 440 kts 239°
2026-05-06 23:19 46.06913 -67.75728 27779 ft 440 kts 239°
2026-05-06 23:19 46.05463 -67.79549 27782 ft 440 kts 239°
2026-05-06 23:19 46.03990 -67.83425 27761 ft 439 kts 239°
2026-05-06 23:19 46.02566 -67.87312 27783 ft 439 kts 240°
2026-05-06 23:20 46.01194 -67.91252 27785 ft 440 kts 241°
2026-05-06 23:20 45.99866 -67.95146 27786 ft 439 kts 241°
2026-05-06 23:20 45.98523 -67.99093 27792 ft 439 kts 241°
2026-05-06 23:20 45.97217 -68.02914 27772 ft 440 kts 241°
2026-05-06 23:21 45.95860 -68.06862 27792 ft 439 kts 241°
2026-05-06 23:21 45.94494 -68.10811 27776 ft 439 kts 241°
2026-05-06 23:21 45.93129 -68.14742 27799 ft 439 kts 241°
2026-05-06 23:21 45.91775 -68.18626 27822 ft 439 kts 240°
2026-05-06 23:22 45.90403 -68.22551 27799 ft 439 kts 240°
2026-05-06 23:22 45.89029 -68.26477 27784 ft 439 kts 240°
2026-05-06 23:22 45.87652 -68.30402 27789 ft 440 kts 240°
2026-05-06 23:22 45.86273 -68.34327 27792 ft 440 kts 240°
2026-05-06 23:23 45.84911 -68.38200 27788 ft 440 kts 240°
2026-05-06 23:23 45.83527 -68.42131 27783 ft 440 kts 240°
2026-05-06 23:23 45.82145 -68.46051 27794 ft 440 kts 240°
2026-05-06 23:23 45.80761 -68.49970 27785 ft 440 kts 240°
2026-05-06 23:24 45.79376 -68.53887 27787 ft 440 kts 240°
2026-05-06 23:24 45.77991 -68.57800 27784 ft 440 kts 240°
2026-05-06 23:24 45.76605 -68.61707 27785 ft 440 kts 240°
2026-05-06 23:24 45.75236 -68.65561 27773 ft 440 kts 240°
2026-05-06 23:25 45.73845 -68.69471 27787 ft 440 kts 240°
2026-05-06 23:25 45.72449 -68.73391 27773 ft 440 kts 240°
2026-05-06 23:25 45.71056 -68.77297 27811 ft 440 kts 240°
2026-05-06 23:25 45.69659 -68.81208 27805 ft 441 kts 240°
2026-05-06 23:26 45.68275 -68.85075 27799 ft 441 kts 240°
2026-05-06 23:26 45.66868 -68.89004 27794 ft 442 kts 240°
2026-05-06 23:26 45.65465 -68.92914 27791 ft 442 kts 240°
2026-05-06 23:26 45.64058 -68.96830 27786 ft 442 kts 240°
2026-05-06 23:27 45.62697 -69.00611 27765 ft 442 kts 240°
2026-05-06 23:27 45.61288 -69.04524 27773 ft 442 kts 240°
2026-05-06 23:27 45.59893 -69.08391 27783 ft 442 kts 240°
2026-05-06 23:27 45.58477 -69.12307 27776 ft 443 kts 240°
2026-05-06 23:28 45.57063 -69.16215 27788 ft 443 kts 240°
2026-05-06 23:28 45.55648 -69.20119 27774 ft 443 kts 240°
2026-05-06 23:28 45.54229 -69.24030 27783 ft 443 kts 240°
2026-05-06 23:28 45.52807 -69.27942 27774 ft 443 kts 240°
2026-05-06 23:29 45.51398 -69.31812 27785 ft 444 kts 240°
2026-05-06 23:29 45.49968 -69.35736 27818 ft 444 kts 240°
2026-05-06 23:29 45.48537 -69.39653 27763 ft 445 kts 240°
2026-05-06 23:29 45.47150 -69.43448 27777 ft 445 kts 240°
2026-05-06 23:30 45.45712 -69.47376 27776 ft 445 kts 240°
2026-05-06 23:30 45.44278 -69.51287 27785 ft 445 kts 240°
2026-05-06 23:30 45.42839 -69.55208 27781 ft 446 kts 240°
2026-05-06 23:30 45.41402 -69.59118 27785 ft 446 kts 240°
2026-05-06 23:31 45.39957 -69.63041 27792 ft 446 kts 240°
2026-05-06 23:31 45.38528 -69.66917 27787 ft 446 kts 240°
2026-05-06 23:31 45.37083 -69.70831 27787 ft 446 kts 240°
2026-05-06 23:31 45.35633 -69.74753 27786 ft 447 kts 240°
2026-05-06 23:32 45.34185 -69.78662 27778 ft 447 kts 240°
2026-05-06 23:32 45.32748 -69.82536 27790 ft 447 kts 240°
2026-05-06 23:32 45.31293 -69.86455 27787 ft 447 kts 240°
2026-05-06 23:32 45.29838 -69.90367 27786 ft 448 kts 240°
2026-05-06 23:33 45.28378 -69.94288 27794 ft 447 kts 240°
2026-05-06 23:33 45.26939 -69.98147 27792 ft 448 kts 240°
2026-05-06 23:33 45.25526 -70.01930 27789 ft 448 kts 240°
2026-05-06 23:33 45.24062 -70.05845 27793 ft 448 kts 240°
2026-05-06 23:34 45.22597 -70.09756 27792 ft 448 kts 240°
2026-05-06 23:34 45.21130 -70.13665 27769 ft 448 kts 240°
2026-05-06 23:34 45.19663 -70.17572 27784 ft 448 kts 240°
2026-05-06 23:34 45.18210 -70.21434 27787 ft 448 kts 240°
2026-05-06 23:35 45.16738 -70.25343 27782 ft 448 kts 240°
2026-05-06 23:35 45.15266 -70.29244 27770 ft 448 kts 240°
2026-05-06 23:35 45.13815 -70.33100 27790 ft 448 kts 240°
2026-05-06 23:35 45.12341 -70.36994 27785 ft 448 kts 240°
2026-05-06 23:36 45.10864 -70.40885 27774 ft 449 kts 240°
2026-05-06 23:36 45.09381 -70.44789 27783 ft 448 kts 240°
2026-05-06 23:36 45.07906 -70.48672 27813 ft 449 kts 240°
2026-05-06 23:36 45.06442 -70.52521 27798 ft 449 kts 240°
2026-05-06 23:37 45.04955 -70.56428 27796 ft 449 kts 240°
2026-05-06 23:37 45.03470 -70.60319 27786 ft 449 kts 240°
2026-05-06 23:37 45.01981 -70.64219 27786 ft 449 kts 240°
2026-05-06 23:37 45.00512 -70.68060 27789 ft 449 kts 240°
2026-05-06 23:38 44.99021 -70.71952 27805 ft 449 kts 240°
2026-05-06 23:38 44.97535 -70.75825 27803 ft 449 kts 240°
2026-05-06 23:38 44.96038 -70.79721 27803 ft 449 kts 240°
2026-05-06 23:38 44.94547 -70.83599 27801 ft 449 kts 240°
2026-05-06 23:39 44.93055 -70.87471 27788 ft 449 kts 240°
2026-05-06 23:39 44.91581 -70.91294 27805 ft 449 kts 240°
2026-05-06 23:39 44.90083 -70.95173 27806 ft 449 kts 240°
2026-05-06 23:39 44.88587 -70.99044 27808 ft 449 kts 240°
2026-05-06 23:40 44.87139 -71.02784 27843 ft 449 kts 240°
2026-05-06 23:40 44.85619 -71.06659 27808 ft 449 kts 238°
2026-05-06 23:40 44.83948 -71.10311 27793 ft 449 kts 234°
2026-05-06 23:40 44.82052 -71.13800 27801 ft 449 kts 229°
2026-05-06 23:41 44.79965 -71.17083 27793 ft 448 kts 228°
2026-05-06 23:41 44.78577 -71.19257 27785 ft 448 kts 228°
2026-05-06 23:41 44.76499 -71.22529 27788 ft 448 kts 228°
2026-05-06 23:41 44.73752 -71.26872 27817 ft 448 kts 228°
2026-05-06 23:42 44.72348 -71.29094 27819 ft 448 kts 228°
2026-05-06 23:42 44.70300 -71.32340 27811 ft 448 kts 228°
2026-05-06 23:42 44.68227 -71.35619 27806 ft 448 kts 228°
2026-05-06 23:42 44.66151 -71.38899 27809 ft 448 kts 228°
2026-05-06 23:43 44.64078 -71.42181 27817 ft 448 kts 228°
2026-05-06 23:43 44.62031 -71.45418 27795 ft 448 kts 228°
2026-05-06 23:43 44.59955 -71.48688 27806 ft 448 kts 228°
2026-05-06 23:43 44.57871 -71.51968 27796 ft 449 kts 228°
2026-05-06 23:44 44.55795 -71.55238 27803 ft 449 kts 228°
2026-05-06 23:44 44.53713 -71.58513 27804 ft 449 kts 228°
2026-05-06 23:44 44.51627 -71.61784 27803 ft 449 kts 228°
2026-05-06 23:44 44.49572 -71.65005 27801 ft 449 kts 228°
2026-05-06 23:45 44.47487 -71.68269 27780 ft 449 kts 229°
2026-05-06 23:45 44.45210 -71.71832 27817 ft 449 kts 228°
2026-05-06 23:45 44.43125 -71.75088 27805 ft 449 kts 228°
2026-05-06 23:45 44.41036 -71.78346 27802 ft 450 kts 228°
2026-05-06 23:46 44.38944 -71.81604 27798 ft 450 kts 228°
2026-05-06 23:46 44.36848 -71.84865 27796 ft 450 kts 228°